W4HSV Weather Reports


Display with metric or nautical units.
time (UTC)temp
F
wind
direction
speed
MPH
gust
MPH
rain 1hr
in
rain 24hr
in
rain mn
in
humidity
%
barometer
mb
20260902220933 97 31 2.0 6.0 0.00 0.00 0.00 48 1016.0
20260902220820 97 69 3.0 6.0 0.00 0.00 0.00 49 1015.9
20260902220727 97 76 2.0 5.0 0.00 0.00 0.00 49 1015.8
20260902220635 97 112 2.0 5.0 0.00 0.00 0.00 47 1015.9
20260902220522 97 104 2.0 7.0 0.00 0.00 0.00 48 1015.9
20260902220434 97 99 3.0 7.0 0.00 0.00 0.00 49 1015.9
20260902220342 97 123 2.0 7.0 0.00 0.00 0.00 49 1015.9
20260902220313 97 146 2.0 7.0 0.00 0.00 0.00 49 1015.9
20260902220024 97 58 2.0 7.0 0.00 0.00 0.00 47 1015.9
20260902215932 97 48 3.0 7.0 0.00 0.00 0.00 47 1015.9
20260902215825 97 28 3.0 7.0 0.00 0.00 0.00 47 1015.9
20260902215751 97 48 3.0 7.0 0.00 0.00 0.00 47 1015.9
20260902215638 97 71 2.0 5.0 0.00 0.00 0.00 48 1015.9
20260902215525 97 36 1.0 3.0 0.00 0.00 0.00 48 1015.9
20260902215430 97 78 2.0 3.0 0.00 0.00 0.00 48 1015.9
20260902215319 97 79 2.0 3.0 0.00 0.00 0.00 49 1015.9
20260902215246 97 95 2.0 3.0 0.00 0.00 0.00 48 1016.0
20260902215136 97 140 1.0 4.0 0.00 0.00 0.00 47 1015.9
20260902215044 97 187 2.0 6.0 0.00 0.00 0.00 47 1015.8
20260902214931 97 95 2.0 6.0 0.00 0.00 0.00 48 1015.9
20260902214859 97 119 2.0 6.0 0.00 0.00 0.00 48 1015.9
20260902214808 97 115 2.0 6.0 0.00 0.00 0.00 47 1015.9
20260902214525 97 118 2.0 6.0 0.00 0.00 0.00 47 1015.9
20260902214431 97 105 3.0 6.0 0.00 0.00 0.00 46 1016.0
20260902214317 97 107 3.0 6.0 0.00 0.00 0.00 46 1016.0
20260902214224 97 126 3.0 6.0 0.00 0.00 0.00 47 1016.0
20260902214132 97 120 2.0 4.0 0.00 0.00 0.00 48 1016.0
20260902214017 97 80 2.0 4.0 0.00 0.00 0.00 47 1015.9
20260902213928 97 59 3.0 4.0 0.00 0.00 0.00 50 1016.0
20260902213835 97 82 3.0 4.0 0.00 0.00 0.00 49 1016.0
20260902213722 97 41 3.0 5.0 0.00 0.00 0.00 49 1016.1
20260902213650 97 138 2.0 5.0 0.00 0.00 0.00 49 1016.0
20260902213556 97 148 2.0 4.0 0.00 0.00 0.00 47 1016.0
20260902213441 97 148 1.0 6.0 0.00 0.00 0.00 48 1016.0
20260902213327 97 151 1.0 7.0 0.00 0.00 0.00 47 1016.0
20260902213303 97 151 2.0 7.0 0.00 0.00 0.00 47 1016.0
20260902213035 97 152 1.0 8.0 0.00 0.00 0.00 47 1016.1
20260902212922 97 132 2.0 8.0 0.00 0.00 0.00 47 1016.1
20260902212828 97 128 2.0 8.0 0.00 0.00 0.00 47 1016.1
20260902212719 97 131 4.0 8.0 0.00 0.00 0.00 47 1016.1
20260902212646 97 98 5.0 8.0 0.00 0.00 0.00 49 1016.1
20260902212532 97 113 4.0 8.0 0.00 0.00 0.00 49 1016.0
20260902212418 97 103 2.0 8.0 0.00 0.00 0.00 48 1016.1
20260902212325 97 44 3.0 8.0 0.00 0.00 0.00 48 1016.1
20260902212232 97 107 3.0 8.0 0.00 0.00 0.00 49 1016.1
20260902212123 97 83 3.0 8.0 0.00 0.00 0.00 47 1016.1
20260902212031 97 83 3.0 8.0 0.00 0.00 0.00 46 1016.1
20260902211957 97 117 3.0 6.0 0.00 0.00 0.00 48 1016.1
20260902211823 98 123 2.0 5.0 0.00 0.00 0.00 48 1016.2
20260902211753 97 109 2.0 4.0 0.00 0.00 0.00 47 1016.2
20260902211530 97 72 2.0 4.0 0.00 0.00 0.00 48 1016.2
20260902211416 97 130 3.0 6.0 0.00 0.00 0.00 47 1016.2
20260902211323 97 42 3.0 6.0 0.00 0.00 0.00 47 1016.2
20260902211230 97 41 2.0 6.0 0.00 0.00 0.00 48 1016.2
20260902211117 97 74 0.0 6.0 0.00 0.00 0.00 46 1016.2
20260902211025 97 227 0.0 6.0 0.00 0.00 0.00 46 1016.2
20260902210935 97 188 0.0 6.0 0.00 0.00 0.00 47 1016.2
20260902210821 96 169 1.0 6.0 0.00 0.00 0.00 47 1016.2
20260902210726 96 192 3.0 6.0 0.00 0.00 0.00 46 1016.2
20260902210634 96 192 3.0 6.0 0.00 0.00 0.00 48 1016.2
20260902210520 96 180 2.0 6.0 0.00 0.00 0.00 48 1016.2
20260902210431 96 114 2.0 6.0 0.00 0.00 0.00 48 1016.3
20260902210357 96 57 3.0 6.0 0.00 0.00 0.00 48 1016.3
20260902210327 96 57 4.0 6.0 0.00 0.00 0.00 48 1016.3
20260902210020 96 110 4.0 6.0 0.00 0.00 0.00 50 1016.3
20260902205928 96 121 3.0 6.0 0.00 0.00 0.00 49 1016.3
20260902205820 96 113 2.0 8.0 0.00 0.00 0.00 48 1016.3
20260902205726 96 101 2.0 8.0 0.00 0.00 0.00 49 1016.3
20260902205653 96 68 3.0 8.0 0.00 0.00 0.00 48 1016.3
20260902205518 96 105 3.0 9.0 0.00 0.00 0.00 50 1016.3
20260902205425 96 157 3.0 9.0 0.00 0.00 0.00 49 1016.4
20260902205333 96 106 3.0 9.0 0.00 0.00 0.00 48 1016.2
20260902205243 96 123 2.0 9.0 0.00 0.00 0.00 48 1016.3
20260902205128 96 120 2.0 9.0 0.00 0.00 0.00 48 1016.3
20260902205036 96 102 3.0 9.0 0.00 0.00 0.00 47 1016.3
20260902204922 96 131 5.0 9.0 0.00 0.00 0.00 48 1016.3
20260902204832 96 112 5.0 8.0 0.00 0.00 0.00 49 1016.3
20260902204805 96 131 4.0 8.0 0.00 0.00 0.00 51 1016.3
20260902204518 96 161 2.0 6.0 0.00 0.00 0.00 49 1016.3
20260902204425 96 103 3.0 6.0 0.00 0.00 0.00 48 1016.2
20260902204331 96 111 3.0 6.0 0.00 0.00 0.00 49 1016.3
20260902204219 96 123 3.0 6.0 0.00 0.00 0.00 52 1016.3
20260902204129 96 113 1.0 5.0 0.00 0.00 0.00 48 1016.2
20260902204035 96 157 1.0 4.0 0.00 0.00 0.00 49 1016.3
20260902203942 96 93 1.0 4.0 0.00 0.00 0.00 48 1016.3
20260902203828 96 97 2.0 4.0 0.00 0.00 0.00 48 1016.2
20260902203735 96 112 2.0 4.0 0.00 0.00 0.00 49 1016.2
20260902203620 96 134 2.0 4.0 0.00 0.00 0.00 50 1016.3
20260902203532 96 135 1.0 4.0 0.00 0.00 0.00 51 1016.3
20260902203419 96 99 1.0 6.0 0.00 0.00 0.00 52 1016.3
20260902203326 96 95 2.0 6.0 0.00 0.00 0.00 51 1016.3
20260902203258 96 112 2.0 6.0 0.00 0.00 0.00 51 1016.3
20260902203030 96 119 2.0 6.0 0.00 0.00 0.00 51 1016.3
20260902202919 96 130 1.0 6.0 0.00 0.00 0.00 49 1016.3
20260902202826 96 132 1.0 6.0 0.00 0.00 0.00 49 1016.4
20260902202733 96 113 2.0 6.0 0.00 0.00 0.00 49 1016.3
20260902202621 96 153 2.0 6.0 0.00 0.00 0.00 49 1016.4
20260902202529 96 73 2.0 3.0 0.00 0.00 0.00 50 1016.4
20260902202420 96 90 2.0 4.0 0.00 0.00 0.00 53 1016.3
20260902202328 96 127 2.0 4.0 0.00 0.00 0.00 49 1016.5
20260902202236 96 134 2.0 4.0 0.00 0.00 0.00 51 1016.4
20260902202123 96 235 1.0 4.0 0.00 0.00 0.00 50 1016.5
20260902202030 96 146 1.0 4.0 0.00 0.00 0.00 49 1016.5
20260902201921 96 137 2.0 4.0 0.00 0.00 0.00 49 1016.4
20260902201828 96 160 2.0 4.0 0.00 0.00 0.00 51 1016.6
20260902201759 96 156 2.0 4.0 0.00 0.00 0.00 51 1016.6
20260902201533 96 115 2.0 6.0 0.00 0.00 0.00 49 1016.6
20260902201420 96 91 2.0 6.0 0.00 0.00 0.00 49 1016.6
20260902201331 96 88 2.0 6.0 0.00 0.00 0.00 49 1016.6
20260902201220 96 142 2.0 6.0 0.00 0.00 0.00 50 1016.6
20260902201128 96 143 2.0 6.0 0.00 0.00 0.00 49 1016.7
20260902201033 96 119 2.0 6.0 0.00 0.00 0.00 51 1016.7
20260902200921 96 144 2.0 6.0 0.00 0.00 0.00 50 1016.7
20260902200831 96 108 3.0 7.0 0.00 0.00 0.00 49 1016.7
20260902200717 96 92 4.0 7.0 0.00 0.00 0.00 50 1016.7
20260902200645 96 82 4.0 7.0 0.00 0.00 0.00 50 1016.7
20260902200531 96 141 5.0 8.0 0.00 0.00 0.00 50 1016.8
20260902200417 96 132 4.0 8.0 0.00 0.00 0.00 50 1016.8
20260902200324 96 128 4.0 9.0 0.00 0.00 0.00 52 1016.8
20260902200259 96 86 4.0 9.0 0.00 0.00 0.00 52 1016.8
20260902200031 96 119 5.0 9.0 0.00 0.00 0.00 50 1016.8
20260902195919 96 119 5.0 9.0 0.00 0.00 0.00 53 1016.9
20260902195827 96 105 6.0 9.0 0.00 0.00 0.00 51 1016.9
20260902195719 96 98 5.0 9.0 0.00 0.00 0.00 51 1016.9
20260902195625 96 123 4.0 9.0 0.00 0.00 0.00 50 1017.0
20260902195532 96 96 4.0 9.0 0.00 0.00 0.00 52 1017.0
20260902195419 96 128 5.0 9.0 0.00 0.00 0.00 52 1016.9
20260902195346 96 111 4.0 9.0 0.00 0.00 0.00 51 1016.8
20260902195231 96 163 5.0 8.0 0.00 0.00 0.00 51 1016.9
20260902195122 97 86 5.0 8.0 0.00 0.00 0.00 51 1016.9
20260902195048 97 60 4.0 8.0 0.00 0.00 0.00 52 1016.9
20260902194933 97 132 5.0 8.0 0.00 0.00 0.00 50 1016.9
20260902194842 97 125 4.0 8.0 0.00 0.00 0.00 52 1016.9
20260902194812 97 84 4.0 8.0 0.00 0.00 0.00 51 1016.9
20260902194524 97 88 3.0 8.0 0.00 0.00 0.00 49 1017.0
20260902194456 97 86 2.0 8.0 0.00 0.00 0.00 49 1016.9
20260902194321 97 154 3.0 8.0 0.00 0.00 0.00 48 1016.9
20260902194229 97 117 4.0 8.0 0.00 0.00 0.00 48 1016.9
20260902194137 97 110 5.0 8.0 0.00 0.00 0.00 51 1017.0
20260902194042 97 69 5.0 8.0 0.00 0.00 0.00 50 1017.0
20260902193947 97 121 5.0 8.0 0.00 0.00 0.00 50 1017.0
20260902193834 97 98 3.0 8.0 0.00 0.00 0.00 48 1017.0
20260902193745 97 85 1.0 6.0 0.00 0.00 0.00 49 1017.0
20260902193631 97 171 2.0 6.0 0.00 0.00 0.00 50 1017.1
20260902193538 97 190 3.0 6.0 0.00 0.00 0.00 48 1017.1
20260902193444 97 186 4.0 6.0 0.00 0.00 0.00 50 1017.1
20260902193410 97 114 3.0 7.0 0.00 0.00 0.00 53 1017.1
20260902193320 97 163 3.0 9.0 0.00 0.00 0.00 54 1017.1
20260902193018 96 126 3.0 9.0 0.00 0.00 0.00 48 1017.1
20260902192922 96 188 4.0 9.0 0.00 0.00 0.00 49 1017.1
20260902192827 96 167 4.0 9.0 0.00 0.00 0.00 49 1017.1
20260902192736 96 178 5.0 9.0 0.00 0.00 0.00 51 1017.1
20260902192622 96 201 6.0 9.0 0.00 0.00 0.00 50 1017.2
20260902192531 96 184 5.0 9.0 0.00 0.00 0.00 50 1017.2
20260902192422 96 189 2.0 7.0 0.00 0.00 0.00 50 1017.2
20260902192349 96 133 0.0 8.0 0.00 0.00 0.00 49 1017.2
20260902192255 96 133 1.0 8.0 0.00 0.00 0.00 50 1017.2
20260902192121 96 133 1.0 8.0 0.00 0.00 0.00 49 1017.2
20260902192027 96 133 2.0 8.0 0.00 0.00 0.00 49 1017.2
20260902191934 96 151 3.0 8.0 0.00 0.00 0.00 48 1017.2
20260902191826 96 154 4.0 8.0 0.00 0.00 0.00 50 1017.2
20260902191756 96 63 4.0 8.0 0.00 0.00 0.00 50 1017.2
20260902191528 96 169 3.0 8.0 0.00 0.00 0.00 49 1017.2
20260902191435 96 175 2.0 3.0 0.00 0.00 0.00 48 1017.3
20260902191321 96 222 1.0 3.0 0.00 0.00 0.00 48 1017.2
20260902191233 96 333 0.0 3.0 0.00 0.00 0.00 48 1017.3
20260902191121 96 333 1.0 4.0 0.00 0.00 0.00 48 1017.2
20260902191028 96 333 2.0 7.0 0.00 0.00 0.00 51 1017.4
20260902190934 96 328 1.0 7.0 0.00 0.00 0.00 49 1017.3
20260902190821 96 167 1.0 7.0 0.00 0.00 0.00 49 1017.3
20260902190748 96 167 1.0 7.0 0.00 0.00 0.00 48 1017.4
20260902190619 96 167 2.0 7.0 0.00 0.00 0.00 48 1017.4
20260902190528 96 167 2.0 7.0 0.00 0.00 0.00 47 1017.4
20260902190435 96 119 2.0 7.0 0.00 0.00 0.00 46 1017.4
20260902190321 97 154 3.0 7.0 0.00 0.00 0.00 47 1017.4
20260902190256 97 126 3.0 7.0 0.00 0.00 0.00 47 1017.4
20260902190029 97 24 2.0 4.0 0.00 0.00 0.00 48 1017.5
20260902185937 97 122 1.0 4.0 0.00 0.00 0.00 45 1017.5
20260902185823 98 179 1.0 4.0 0.00 0.00 0.00 45 1017.5
20260902185730 98 179 1.0 4.0 0.00 0.00 0.00 45 1017.6
20260902185657 98 179 1.0 6.0 0.00 0.00 0.00 45 1017.5
20260902185522 98 169 1.0 6.0 0.00 0.00 0.00 45 1017.6
20260902185434 98 113 2.0 6.0 0.00 0.00 0.00 46 1017.5
20260902185340 98 48 2.0 6.0 0.00 0.00 0.00 48 1017.5
20260902185226 98 43 2.0 6.0 0.00 0.00 0.00 48 1017.6
20260902185154 98 26 3.0 6.0 0.00 0.00 0.00 47 1017.5
20260902185018 98 9 2.0 6.0 0.00 0.00 0.00 46 1017.6
20260902184926 98 254 3.0 6.0 0.00 0.00 0.00 48 1017.7
20260902184854 98 5 3.0 6.0 0.00 0.00 0.00 48 1017.7
20260902184829 98 43 4.0 8.0 0.00 0.00 0.00 50 1017.6
20260902184522 98 18 4.0 9.0 0.00 0.00 0.00 48 1017.6
20260902184450 98 24 4.0 9.0 0.00 0.00 0.00 50 1017.6
20260902184335 98 25 3.0 9.0 0.00 0.00 0.00 49 1017.5
20260902184227 97 286 3.0 9.0 0.00 0.00 0.00 48 1017.6
20260902184134 97 36 4.0 9.0 0.00 0.00 0.00 51 1017.7
20260902184021 97 344 5.0 9.0 0.00 0.00 0.00 51 1017.6
20260902183928 97 355 6.0 9.0 0.00 0.00 0.00 52 1017.6
20260902183835 97 336 6.0 9.0 0.00 0.00 0.00 52 1017.7
20260902183721 97 5 4.0 9.0 0.00 0.00 0.00 50 1017.6
20260902183633 97 5 3.0 9.0 0.00 0.00 0.00 49 1017.6
20260902183519 97 336 3.0 9.0 0.00 0.00 0.00 51 1017.6
20260902183447 97 339 3.0 9.0 0.00 0.00 0.00 49 1017.6
20260902183334 97 284 2.0 9.0 0.00 0.00 0.00 50 1017.7
20260902183305 97 296 3.0 9.0 0.00 0.00 0.00 51 1017.7
20260902183022 96 107 5.0 9.0 0.00 0.00 0.00 52 1017.7
20260902182927 96 76 6.0 9.0 0.00 0.00 0.00 53 1017.7
20260902182834 96 43 6.0 7.0 0.00 0.00 0.00 53 1017.7
20260902182740 96 37 4.0 7.0 0.00 0.00 0.00 53 1017.7
20260902182647 96 24 2.0 6.0 0.00 0.00 0.00 51 1017.7
20260902182552 96 321 1.0 6.0 0.00 0.00 0.00 51 1017.7
20260902182438 95 79 2.0 6.0 0.00 0.00 0.00 51 1017.7
20260902182327 95 79 2.0 6.0 0.00 0.00 0.00 51 1017.7
20260902182235 95 101 1.0 6.0 0.00 0.00 0.00 53 1017.7
20260902182120 95 133 2.0 7.0 0.00 0.00 0.00 51 1017.7
20260902182048 95 121 2.0 7.0 0.00 0.00 0.00 52 1017.7
20260902181934 95 67 3.0 7.0 0.00 0.00 0.00 53 1017.7
20260902181823 95 82 3.0 9.0 0.00 0.00 0.00 55 1017.9
20260902181757 95 71 3.0 9.0 0.00 0.00 0.00 55 1017.9
20260902181532 95 134 3.0 9.0 0.00 0.00 0.00 52 1017.9
20260902181418 96 196 5.0 9.0 0.00 0.00 0.00 52 1017.9
20260902181327 96 184 4.0 9.0 0.00 0.00 0.00 52 1017.9
20260902181232 96 182 4.0 9.0 0.00 0.00 0.00 52 1017.9
20260902181125 96 152 6.0 9.0 0.00 0.00 0.00 54 1018.0
20260902181031 96 150 5.0 9.0 0.00 0.00 0.00 54 1017.9
20260902180918 96 92 2.0 7.0 0.00 0.00 0.00 50 1017.9
20260902180825 96 146 2.0 7.0 0.00 0.00 0.00 49 1018.0
20260902180732 96 135 3.0 7.0 0.00 0.00 0.00 50 1018.0
20260902180642 97 124 4.0 7.0 0.00 0.00 0.00 51 1018.0
20260902180529 97 164 3.0 6.0 0.00 0.00 0.00 50 1018.0
20260902180435 97 125 3.0 6.0 0.00 0.00 0.00 52 1018.0
20260902180343 97 86 3.0 6.0 0.00 0.00 0.00 53 1018.1
20260902180313 97 68 2.0 6.0 0.00 0.00 0.00 53 1018.1
20260902180029 97 57 1.0 4.0 0.00 0.00 0.00 51 1018.1
20260902175936 97 63 1.0 4.0 0.00 0.00 0.00 52 1018.2
20260902175844 97 186 2.0 4.0 0.00 0.00 0.00 49 1018.2
20260902175730 97 276 2.0 4.0 0.00 0.00 0.00 49 1018.2
20260902175616 97 315 1.0 4.0 0.00 0.00 0.00 52 1018.2
20260902175523 97 106 1.0 4.0 0.00 0.00 0.00 49 1018.3
20260902175434 97 184 2.0 4.0 0.00 0.00 0.00 49 1018.3
20260902175322 97 232 2.0 4.0 0.00 0.00 0.00 50 1018.3
20260902175228 97 242 2.0 4.0 0.00 0.00 0.00 51 1018.2
20260902175135 97 271 2.0 5.0 0.00 0.00 0.00 52 1018.2
20260902175021 97 316 2.0 5.0 0.00 0.00 0.00 52 1018.3
20260902174928 96 355 2.0 5.0 0.00 0.00 0.00 53 1018.3
20260902174859 96 311 3.0 5.0 0.00 0.00 0.00 53 1018.3
20260902174830 96 311 2.0 5.0 0.00 0.00 0.00 52 1018.3
20260902174522 96 61 1.0 6.0 0.00 0.00 0.00 50 1018.3
20260902174429 96 5 2.0 8.0 0.00 0.00 0.00 52 1018.3
20260902174320 96 5 3.0 8.0 0.00 0.00 0.00 52 1018.4
20260902174227 96 21 3.0 8.0 0.00 0.00 0.00 54 1018.4
20260902174135 96 40 2.0 8.0 0.00 0.00 0.00 52 1018.5
20260902174021 96 341 2.0 8.0 0.00 0.00 0.00 51 1018.5
20260902173949 96 355 3.0 8.0 0.00 0.00 0.00 53 1018.6
20260902173835 96 18 5.0 8.0 0.00 0.00 0.00 53 1018.5
20260902173725 96 360 4.0 8.0 0.00 0.00 0.00 52 1018.6
20260902173632 96 9 3.0 8.0 0.00 0.00 0.00 53 1018.5
20260902173538 96 266 2.0 4.0 0.00 0.00 0.00 52 1018.6
20260902173424 96 327 2.0 4.0 0.00 0.00 0.00 53 1018.6
20260902173330 96 165 1.0 4.0 0.00 0.00 0.00 52 1018.6
20260902173303 96 205 1.0 4.0 0.00 0.00 0.00 55 1018.6
20260902173017 96 120 2.0 5.0 0.00 0.00 0.00 50 1018.5
20260902172924 96 165 2.0 5.0 0.00 0.00 0.00 52 1018.6
20260902172832 96 122 3.0 5.0 0.00 0.00 0.00 51 1018.7
20260902172720 96 17 2.0 5.0 0.00 0.00 0.00 53 1018.7
20260902172626 96 85 2.0 5.0 0.00 0.00 0.00 52 1018.8
20260902172532 96 87 2.0 5.0 0.00 0.00 0.00 52 1018.8
20260902172442 96 46 1.0 5.0 0.00 0.00 0.00 52 1018.8
20260902172328 96 334 2.0 5.0 0.00 0.00 0.00 53 1018.9
20260902172235 96 338 3.0 5.0 0.00 0.00 0.00 55 1018.8
20260902172123 96 54 1.0 4.0 0.00 0.00 0.00 52 1018.8
20260902172030 96 5 1.0 4.0 0.00 0.00 0.00 51 1018.8
20260902171921 96 46 1.0 5.0 0.00 0.00 0.00 52 1018.9
20260902171828 96 46 3.0 5.0 0.00 0.00 0.00 54 1018.9
20260902171757 96 46 3.0 6.0 0.00 0.00 0.00 54 1018.9
20260902171531 96 53 2.0 6.0 0.00 0.00 0.00 56 1018.9
20260902171417 96 5 3.0 6.0 0.00 0.00 0.00 54 1018.8
20260902171329 96 39 3.0 9.0 0.00 0.00 0.00 53 1018.9
20260902171217 95 17 3.0 9.0 0.00 0.00 0.00 55 1018.9
20260902171123 95 42 3.0 9.0 0.00 0.00 0.00 56 1018.9
20260902171029 95 24 4.0 9.0 0.00 0.00 0.00 56 1019.0
20260902170935 95 27 4.0 9.0 0.00 0.00 0.00 57 1019.0
20260902170826 95 17 3.0 9.0 0.00 0.00 0.00 55 1018.9
20260902170733 95 30 2.0 9.0 0.00 0.00 0.00 55 1019.1
20260902170639 95 34 4.0 9.0 0.00 0.00 0.00 56 1019.0
20260902170526 95 42 6.0 9.0 0.00 0.00 0.00 57 1019.0
20260902170432 95 34 5.0 9.0 0.00 0.00 0.00 58 1019.1
20260902170319 95 40 4.0 6.0 0.00 0.00 0.00 57 1019.1
20260902170254 94 28 3.0 6.0 0.00 0.00 0.00 58 1019.1
20260902170028 94 29 2.0 6.0 0.00 0.00 0.00 58 1019.2
20260902165936 94 77 1.0 5.0 0.00 0.00 0.00 56 1019.2
20260902165824 94 39 2.0 5.0 0.00 0.00 0.00 59 1019.1
20260902165732 94 297 2.0 5.0 0.00 0.00 0.00 59 1019.2
20260902165621 94 319 2.0 5.0 0.00 0.00 0.00 58 1019.2
20260902165528 94 347 1.0 6.0 0.00 0.00 0.00 56 1019.2
20260902165434 94 298 1.0 7.0 0.00 0.00 0.00 56 1019.2
20260902165322 94 298 2.0 7.0 0.00 0.00 0.00 56 1019.2
20260902165230 94 236 2.0 7.0 0.00 0.00 0.00 55 1019.3
20260902165119 94 140 2.0 7.0 0.00 0.00 0.00 56 1019.3
20260902165028 94 103 2.0 7.0 0.00 0.00 0.00 56 1019.2
20260902164956 94 196 2.0 8.0 0.00 0.00 0.00 56 1019.3
20260902164903 94 104 4.0 8.0 0.00 0.00 0.00 56 1019.3
20260902164812 94 101 4.0 8.0 0.00 0.00 0.00 57 1019.3
20260902164523 94 123 1.0 8.0 0.00 0.00 0.00 55 1019.3
20260902164433 94 107 1.0 8.0 0.00 0.00 0.00 55 1019.3
20260902164320 94 117 3.0 8.0 0.00 0.00 0.00 55 1019.3
20260902164227 95 136 4.0 8.0 0.00 0.00 0.00 55 1019.4
20260902164135 95 109 4.0 8.0 0.00 0.00 0.00 55 1019.4
20260902164040 95 114 5.0 8.0 0.00 0.00 0.00 54 1019.4
20260902163926 95 133 6.0 8.0 0.00 0.00 0.00 58 1019.4
20260902163818 95 119 5.0 8.0 0.00 0.00 0.00 58 1019.4
20260902163726 95 111 4.0 7.0 0.00 0.00 0.00 56 1019.5
20260902163633 95 67 3.0 6.0 0.00 0.00 0.00 56 1019.4
20260902163521 95 79 1.0 4.0 0.00 0.00 0.00 54 1019.4
20260902163427 95 327 1.0 4.0 0.00 0.00 0.00 54 1019.5
20260902163338 95 92 2.0 4.0 0.00 0.00 0.00 53 1019.5
20260902163307 95 92 2.0 6.0 0.00 0.00 0.00 53 1019.5
20260902163021 95 76 1.0 6.0 0.00 0.00 0.00 57 1019.5
20260902162929 95 219 2.0 6.0 0.00 0.00 0.00 56 1019.5
20260902162820 95 11 2.0 6.0 0.00 0.00 0.00 56 1019.4
20260902162727 95 5 2.0 6.0 0.00 0.00 0.00 56 1019.5
20260902162635 95 27 2.0 6.0 0.00 0.00 0.00 57 1019.5
20260902162521 95 192 3.0 6.0 0.00 0.00 0.00 58 1019.4
20260902162428 95 138 3.0 6.0 0.00 0.00 0.00 54 1019.5
20260902162335 95 115 2.0 6.0 0.00 0.00 0.00 54 1019.5
20260902162226 95 85 3.0 6.0 0.00 0.00 0.00 54 1019.6
20260902162153 95 74 3.0 6.0 0.00 0.00 0.00 55 1019.5
20260902162019 95 49 4.0 6.0 0.00 0.00 0.00 54 1019.5
20260902161926 95 84 3.0 6.0 0.00 0.00 0.00 55 1019.5
20260902161834 95 39 2.0 6.0 0.00 0.00 0.00 57 1019.5
20260902161809 95 35 1.0 6.0 0.00 0.00 0.00 55 1019.5
20260902161523 95 311 1.0 6.0 0.00 0.00 0.00 56 1019.6
20260902161429 95 311 2.0 6.0 0.00 0.00 0.00 56 1019.6
20260902161336 95 355 3.0 6.0 0.00 0.00 0.00 56 1019.6
20260902161224 95 19 4.0 6.0 0.00 0.00 0.00 56 1019.6
20260902161134 95 360 4.0 6.0 0.00 0.00 0.00 56 1019.5
20260902161021 95 24 4.0 6.0 0.00 0.00 0.00 58 1019.6
20260902160929 94 44 2.0 7.0 0.00 0.00 0.00 56 1019.5
20260902160816 94 5 2.0 6.0 0.00 0.00 0.00 56 1019.5
20260902160722 94 26 2.0 6.0 0.00 0.00 0.00 57 1019.5
20260902160628 94 26 4.0 6.0 0.00 0.00 0.00 57 1019.6
20260902160536 94 36 4.0 6.0 0.00 0.00 0.00 58 1019.6
20260902160424 94 38 3.0 6.0 0.00 0.00 0.00 57 1019.6
20260902160329 94 10 2.0 5.0 0.00 0.00 0.00 57 1019.6
20260902160259 94 40 1.0 5.0 0.00 0.00 0.00 57 1019.6
20260902160033 94 101 1.0 5.0 0.00 0.00 0.00 58 1019.6
20260902155923 94 92 1.0 5.0 0.00 0.00 0.00 55 1019.6
20260902155832 94 171 2.0 5.0 0.00 0.00 0.00 55 1019.6
20260902155718 95 188 1.0 5.0 0.00 0.00 0.00 55 1019.5
20260902155626 95 348 0.0 5.0 0.00 0.00 0.00 54 1019.5
20260902155534 95 52 1.0 5.0 0.00 0.00 0.00 54 1019.6
20260902155426 95 46 2.0 5.0 0.00 0.00 0.00 54 1019.6
20260902155353 95 46 3.0 5.0 0.00 0.00 0.00 56 1019.6
20260902155217 95 71 2.0 4.0 0.00 0.00 0.00 55 1019.6
20260902155144 95 48 1.0 4.0 0.00 0.00 0.00 55 1019.5
20260902155031 95 52 1.0 5.0 0.00 0.00 0.00 58 1019.6
20260902154916 94 329 1.0 5.0 0.00 0.00 0.00 57 1019.6
20260902154824 94 329 2.0 5.0 0.00 0.00 0.00 56 1019.6
20260902154758 94 341 2.0 5.0 0.00 0.00 0.00 56 1019.6
20260902154531 94 33 2.0 5.0 0.00 0.00 0.00 58 1019.6
20260902154418 94 355 2.0 5.0 0.00 0.00 0.00 59 1019.6
20260902154324 94 360 3.0 5.0 0.00 0.00 0.00 59 1019.6
20260902154235 94 23 3.0 5.0 0.00 0.00 0.00 58 1019.7
20260902154123 94 30 4.0 5.0 0.00 0.00 0.00 58 1019.7
20260902154050 94 40 4.0 5.0 0.00 0.00 0.00 57 1019.6
20260902153934 94 17 3.0 5.0 0.00 0.00 0.00 59 1019.7
20260902153821 94 355 1.0 4.0 0.00 0.00 0.00 56 1019.7
20260902153748 94 293 1.0 4.0 0.00 0.00 0.00 59 1019.7
20260902153619 93 329 2.0 4.0 0.00 0.00 0.00 61 1019.7
20260902153526 93 329 2.0 4.0 0.00 0.00 0.00 57 1019.7
20260902153452 93 16 1.0 5.0 0.00 0.00 0.00 56 1019.7
20260902153359 93 290 2.0 5.0 0.00 0.00 0.00 56 1019.6
20260902153306 93 243 2.0 5.0 0.00 0.00 0.00 56 1019.6
20260902153019 93 78 3.0 5.0 0.00 0.00 0.00 57 1019.7
20260902152929 93 34 3.0 6.0 0.00 0.00 0.00 58 1019.7
20260902152836 93 63 2.0 6.0 0.00 0.00 0.00 56 1019.7
20260902152723 93 82 3.0 6.0 0.00 0.00 0.00 58 1019.7
20260902152651 93 121 2.0 6.0 0.00 0.00 0.00 57 1019.7
20260902152557 93 57 1.0 6.0 0.00 0.00 0.00 58 1019.6
20260902152422 93 37 3.0 6.0 0.00 0.00 0.00 59 1019.8
20260902152333 93 37 4.0 6.0 0.00 0.00 0.00 59 1019.8
20260902152219 93 31 4.0 6.0 0.00 0.00 0.00 59 1019.7
20260902152144 93 37 4.0 6.0 0.00 0.00 0.00 59 1019.8
20260902152030 93 36 4.0 6.0 0.00 0.00 0.00 57 1019.7
20260902151916 93 64 3.0 5.0 0.00 0.00 0.00 58 1019.7
20260902151824 93 62 3.0 5.0 0.00 0.00 0.00 59 1019.8
20260902151759 92 53 3.0 5.0 0.00 0.00 0.00 59 1019.8
20260902151533 92 355 4.0 5.0 0.00 0.00 0.00 59 1019.7
20260902151440 92 11 3.0 5.0 0.00 0.00 0.00 57 1019.6
20260902151347 92 32 2.0 5.0 0.00 0.00 0.00 58 1019.7
20260902151233 92 5 2.0 5.0 0.00 0.00 0.00 59 1019.7
20260902151124 92 34 3.0 5.0 0.00 0.00 0.00 59 1019.7
20260902151031 92 22 3.0 5.0 0.00 0.00 0.00 59 1019.7
20260902150918 92 35 4.0 5.0 0.00 0.00 0.00 59 1019.7
20260902150846 92 36 3.0 5.0 0.00 0.00 0.00 59 1019.6
20260902150731 91 30 2.0 4.0 0.00 0.00 0.00 58 1019.6
20260902150618 91 120 2.0 6.0 0.00 0.00 0.00 58 1019.6
20260902150530 91 69 3.0 6.0 0.00 0.00 0.00 61 1019.6
20260902150436 91 46 2.0 6.0 0.00 0.00 0.00 59 1019.6
20260902150323 91 36 3.0 6.0 0.00 0.00 0.00 62 1019.6
20260902150253 91 52 3.0 6.0 0.00 0.00 0.00 62 1019.6
20260902150027 91 201 3.0 6.0 0.00 0.00 0.00 59 1019.5
20260902145917 91 194 3.0 6.0 0.00 0.00 0.00 59 1019.5
20260902145825 91 203 4.0 6.0 0.00 0.00 0.00 60 1019.5
20260902145732 91 150 3.0 5.0 0.00 0.00 0.00 61 1019.5
20260902145618 91 157 1.0 3.0 0.00 0.00 0.00 62 1019.5
20260902145546 91 285 1.0 3.0 0.00 0.00 0.00 61 1019.5
20260902145432 91 360 1.0 3.0 0.00 0.00 0.00 61 1019.5
20260902145323 91 42 1.0 3.0 0.00 0.00 0.00 61 1019.5
20260902145229 91 42 2.0 3.0 0.00 0.00 0.00 61 1019.5
20260902145156 90 50 1.0 3.0 0.00 0.00 0.00 62 1019.5
20260902145022 90 134 0.0 3.0 0.00 0.00 0.00 62 1019.5
20260902144929 90 213 1.0 3.0 0.00 0.00 0.00 61 1019.5
20260902144835 90 213 1.0 3.0 0.00 0.00 0.00 62 1019.5
20260902144810 90 213 2.0 4.0 0.00 0.00 0.00 62 1019.5
20260902144542 90 261 2.0 6.0 0.00 0.00 0.00 63 1019.5
20260902144428 90 286 2.0 6.0 0.00 0.00 0.00 62 1019.6
20260902144334 90 277 2.0 6.0 0.00 0.00 0.00 61 1019.4
20260902144225 90 205 1.0 6.0 0.00 0.00 0.00 61 1019.5
20260902144131 90 207 1.0 6.0 0.00 0.00 0.00 63 1019.5
20260902144018 90 216 1.0 6.0 0.00 0.00 0.00 63 1019.5
20260902143925 90 207 1.0 6.0 0.00 0.00 0.00 62 1019.5
20260902143832 90 219 2.0 6.0 0.00 0.00 0.00 62 1019.5
20260902143719 90 195 2.0 6.0 0.00 0.00 0.00 64 1019.6
20260902143651 90 191 2.0 6.0 0.00 0.00 0.00 64 1019.5
20260902143517 90 166 1.0 6.0 0.00 0.00 0.00 65 1019.6
20260902143425 90 205 2.0 6.0 0.00 0.00 0.00 65 1019.5
20260902143331 90 175 2.0 6.0 0.00 0.00 0.00 65 1019.6
20260902143301 90 87 3.0 6.0 0.00 0.00 0.00 64 1019.6
20260902143018 89 146 3.0 6.0 0.00 0.00 0.00 65 1019.5
20260902142926 89 147 2.0 4.0 0.00 0.00 0.00 66 1019.5
20260902142853 89 111 1.0 4.0 0.00 0.00 0.00 65 1019.5
20260902142718 89 109 1.0 4.0 0.00 0.00 0.00 65 1019.5
20260902142624 89 90 1.0 4.0 0.00 0.00 0.00 65 1019.6
20260902142530 89 93 2.0 4.0 0.00 0.00 0.00 66 1019.5
20260902142420 89 89 3.0 4.0 0.00 0.00 0.00 66 1019.5
20260902142326 89 84 2.0 4.0 0.00 0.00 0.00 66 1019.5
20260902142233 89 89 2.0 4.0 0.00 0.00 0.00 67 1019.5
20260902142121 88 126 2.0 4.0 0.00 0.00 0.00 66 1019.5
20260902142048 88 103 2.0 4.0 0.00 0.00 0.00 65 1019.6
20260902141918 88 138 2.0 4.0 0.00 0.00 0.00 66 1019.5
20260902141845 88 111 2.0 4.0 0.00 0.00 0.00 66 1019.5
20260902141816 88 81 2.0 4.0 0.00 0.00 0.00 69 1019.5
20260902141527 88 174 2.0 4.0 0.00 0.00 0.00 68 1019.4
20260902141434 88 185 2.0 4.0 0.00 0.00 0.00 68 1019.3
20260902141340 88 207 1.0 3.0 0.00 0.00 0.00 68 1019.4
20260902141230 88 110 2.0 4.0 0.00 0.00 0.00 68 1019.3
20260902141117 88 155 2.0 4.0 0.00 0.00 0.00 69 1019.4
20260902141044 87 55 2.0 4.0 0.00 0.00 0.00 70 1019.4
20260902140929 87 51 2.0 4.0 0.00 0.00 0.00 70 1019.4
20260902140838 87 87 2.0 4.0 0.00 0.00 0.00 70 1019.4
20260902140724 87 65 1.0 4.0 0.00 0.00 0.00 71 1019.3
20260902140652 87 63 1.0 4.0 0.00 0.00 0.00 72 1019.4
20260902140521 87 196 1.0 4.0 0.00 0.00 0.00 69 1019.4
20260902140429 87 196 2.0 4.0 0.00 0.00 0.00 69 1019.4
20260902140336 87 213 3.0 5.0 0.00 0.00 0.00 70 1019.4
20260902140307 87 178 3.0 5.0 0.00 0.00 0.00 71 1019.4
20260902140022 87 128 1.0 5.0 0.00 0.00 0.00 71 1019.3
20260902135929 87 129 2.0 5.0 0.00 0.00 0.00 70 1019.4
20260902135817 87 134 2.0 5.0 0.00 0.00 0.00 70 1019.3
20260902135725 87 108 2.0 5.0 0.00 0.00 0.00 69 1019.3
20260902135630 87 188 2.0 5.0 0.00 0.00 0.00 70 1019.3
20260902135520 87 90 3.0 5.0 0.00 0.00 0.00 70 1019.3
20260902135427 87 119 3.0 5.0 0.00 0.00 0.00 70 1019.4
20260902135354 87 144 3.0 5.0 0.00 0.00 0.00 70 1019.5
20260902135222 87 131 2.0 4.0 0.00 0.00 0.00 70 1019.4
20260902135128 87 109 2.0 4.0 0.00 0.00 0.00 69 1019.4
20260902135055 87 123 3.0 4.0 0.00 0.00 0.00 69 1019.3
20260902134941 87 114 2.0 4.0 0.00 0.00 0.00 69 1019.4
20260902134833 87 165 1.0 4.0 0.00 0.00 0.00 70 1019.4
20260902134804 87 147 1.0 4.0 0.00 0.00 0.00 70 1019.4
20260902134517 87 120 1.0 3.0 0.00 0.00 0.00 70 1019.4
20260902134421 87 120 1.0 3.0 0.00 0.00 0.00 69 1019.3
20260902134330 87 120 1.0 3.0 0.00 0.00 0.00 70 1019.4
20260902134220 87 113 2.0 3.0 0.00 0.00 0.00 70 1019.4
20260902134126 86 113 2.0 3.0 0.00 0.00 0.00 70 1019.5
20260902134054 86 100 2.0 3.0 0.00 0.00 0.00 71 1019.5
20260902133921 86 72 1.0 3.0 0.00 0.00 0.00 72 1019.5
20260902133828 86 97 0.0 3.0 0.00 0.00 0.00 71 1019.5
20260902133755 86 66 1.0 3.0 0.00 0.00 0.00 71 1019.4
20260902133642 86 65 2.0 3.0 0.00 0.00 0.00 71 1019.4
20260902133547 86 75 2.0 3.0 0.00 0.00 0.00 71 1019.5
20260902133435 86 115 1.0 3.0 0.00 0.00 0.00 72 1019.5
20260902133341 86 115 2.0 3.0 0.00 0.00 0.00 72 1019.5
20260902133312 85 89 2.0 3.0 0.00 0.00 0.00 72 1019.5
20260902133045 85 104 1.0 3.0 0.00 0.00 0.00 72 1019.5
20260902132931 85 117 1.0 3.0 0.00 0.00 0.00 72 1019.5
20260902132822 85 117 1.0 3.0 0.00 0.00 0.00 73 1019.5
20260902132729 85 115 1.0 3.0 0.00 0.00 0.00 73 1019.5
20260902132656 85 116 1.0 3.0 0.00 0.00 0.00 73 1019.5
20260902132522 85 88 1.0 3.0 0.00 0.00 0.00 74 1019.5
20260902132428 85 101 1.0 3.0 0.00 0.00 0.00 73 1019.5
20260902132335 85 145 1.0 3.0 0.00 0.00 0.00 74 1019.5
20260902132225 85 145 1.0 3.0 0.00 0.00 0.00 74 1019.5
20260902132131 85 145 1.0 3.0 0.00 0.00 0.00 74 1019.5
20260902132017 85 145 1.0 3.0 0.00 0.00 0.00 73 1019.5
20260902131924 85 145 1.0 3.0 0.00 0.00 0.00 74 1019.5
20260902131831 85 145 1.0 3.0 0.00 0.00 0.00 74 1019.5
20260902131804 84 145 0.0 2.0 0.00 0.00 0.00 74 1019.5
20260902131518 84 355 0.0 0.0 0.00 0.00 0.00 74 1019.5
20260902131424 84 355 0.0 0.0 0.00 0.00 0.00 75 1019.5
20260902131350 84 355 0.0 0.0 0.00 0.00 0.00 76 1019.5
20260902131236 84 355 0.0 0.0 0.00 0.00 0.00 76 1019.5
20260902131123 83 355 0.0 0.0 0.00 0.00 0.00 76 1019.5
20260902131016 83 355 0.0 0.0 0.00 0.00 0.00 76 1019.5
20260902130944 83 355 0.0 0.0 0.00 0.00 0.00 76 1019.5
20260902130830 83 355 0.0 0.0 0.00 0.00 0.00 77 1019.5
20260902130717 83 355 0.0 0.0 0.00 0.00 0.00 76 1019.5
20260902130623 83 355 0.0 0.0 0.00 0.00 0.00 77 1019.5
20260902130531 83 355 0.0 0.0 0.00 0.00 0.00 77 1019.4
20260902130422 82 355 0.0 0.0 0.00 0.00 0.00 78 1019.5
20260902130329 82 355 0.0 0.0 0.00 0.00 0.00 78 1019.4
20260902130300 82 355 0.0 0.0 0.00 0.00 0.00 78 1019.4
20260902130032 81 355 0.0 0.0 0.00 0.00 0.00 78 1019.4
20260902125956 81 355 0.0 0.0 0.00 0.00 0.00 79 1019.3
20260902125826 81 355 0.0 0.0 0.00 0.00 0.00 79 1019.3
20260902125734 81 355 0.0 0.0 0.00 0.00 0.00 80 1019.3
20260902125622 81 355 0.0 0.0 0.00 0.00 0.00 80 1019.3
20260902125530 80 355 0.0 0.0 0.00 0.00 0.00 81 1019.2
20260902125436 80 355 0.0 1.0 0.00 0.00 0.00 81 1019.3
20260902125327 80 355 0.0 1.0 0.00 0.00 0.00 81 1019.3
20260902125255 80 355 0.0 1.0 0.00 0.00 0.00 82 1019.3
20260902125122 79 355 0.0 1.0 0.00 0.00 0.00 83 1019.2
20260902125029 79 355 0.0 1.0 0.00 0.00 0.00 83 1019.3
20260902124936 79 355 0.0 1.0 0.00 0.00 0.00 82 1019.3
20260902124822 79 355 0.0 1.0 0.00 0.00 0.00 83 1019.4
20260902124757 79 355 0.0 1.0 0.00 0.00 0.00 83 1019.4
20260902124530 78 355 0.0 1.0 0.00 0.00 0.00 84 1019.5
20260902124417 78 355 0.0 0.0 0.00 0.00 0.00 84 1019.3
20260902124324 78 355 0.0 0.0 0.00 0.00 0.00 85 1019.5
20260902124231 78 355 0.0 0.0 0.00 0.00 0.00 85 1019.4
20260902124122 78 355 0.0 0.0 0.00 0.00 0.00 86 1019.4
20260902124029 77 355 0.0 0.0 0.00 0.00 0.00 86 1019.4
20260902123917 77 355 0.0 0.0 0.00 0.00 0.00 87 1019.4
20260902123825 77 355 0.0 0.0 0.00 0.00 0.00 87 1019.5
20260902123751 77 355 0.0 0.0 0.00 0.00 0.00 87 1019.4
20260902123620 77 355 0.0 0.0 0.00 0.00 0.00 87 1019.5
20260902123528 77 355 0.0 0.0 0.00 0.00 0.00 88 1019.5
20260902123455 76 355 0.0 0.0 0.00 0.00 0.00 88 1019.4
20260902123320 76 355 0.0 0.0 0.00 0.00 0.00 88 1019.4
20260902123251 76 355 0.0 0.0 0.00 0.00 0.00 88 1019.4
20260902123044 76 355 0.0 0.0 0.00 0.00 0.00 88 1019.3
20260902122935 76 355 0.0 0.0 0.00 0.00 0.00 88 1019.3
20260902122821 76 355 0.0 1.0 0.00 0.00 0.00 89 1019.3
20260902122728 76 355 0.0 2.0 0.00 0.00 0.00 89 1019.3
20260902122656 76 355 0.0 2.0 0.00 0.00 0.00 89 1019.3
20260902122520 75 355 0.0 2.0 0.00 0.00 0.00 89 1019.3
20260902122428 75 355 0.0 2.0 0.00 0.00 0.00 89 1019.3
20260902122339 75 355 0.0 2.0 0.00 0.00 0.00 89 1019.2
20260902122225 75 355 0.0 2.0 0.00 0.00 0.00 89 1019.3
20260902122130 75 355 0.0 2.0 0.00 0.00 0.00 89 1019.3
20260902122018 75 355 1.0 2.0 0.00 0.00 0.00 89 1019.2
20260902121925 75 355 1.0 2.0 0.00 0.00 0.00 90 1019.2
20260902121832 75 355 1.0 2.0 0.00 0.00 0.00 90 1019.2
20260902121807 75 355 0.0 2.0 0.00 0.00 0.00 90 1019.2
20260902121519 75 355 1.0 2.0 0.00 0.00 0.00 90 1019.3
20260902121426 75 355 1.0 2.0 0.00 0.00 0.00 90 1019.2
20260902121333 74 355 1.0 2.0 0.00 0.00 0.00 90 1019.1
20260902121219 74 355 1.0 2.0 0.00 0.00 0.00 90 1019.2
20260902121130 74 355 1.0 2.0 0.00 0.00 0.00 90 1019.1
20260902121017 74 355 1.0 2.0 0.00 0.00 0.00 90 1019.2
20260902120925 74 355 1.0 2.0 0.00 0.00 0.00 90 1019.2
20260902120833 74 355 1.0 2.0 0.00 0.00 0.00 90 1019.1
20260902120719 74 355 1.0 2.0 0.00 0.00 0.00 90 1019.1
20260902120630 74 355 1.0 2.0 0.00 0.00 0.00 90 1019.2
20260902120518 73 355 1.0 2.0 0.00 0.00 0.00 91 1019.2
20260902120427 73 355 1.0 2.0 0.00 0.00 0.00 90 1019.1
20260902120305 73 355 1.0 2.0 0.00 0.00 0.00 90 1019.0
20260902120022 73 355 1.0 2.0 0.00 0.00 0.00 91 1019.0
20260902115949 73 355 1.0 2.0 0.00 0.00 0.00 90 1018.9
20260902115834 73 355 1.0 2.0 0.00 0.00 0.00 90 1018.9
20260902115721 73 355 2.0 2.0 0.00 0.00 0.00 91 1018.9
20260902115630 73 355 2.0 2.0 0.00 0.00 0.00 91 1018.9
20260902115521 73 355 1.0 2.0 0.00 0.00 0.00 90 1018.8
20260902115448 73 355 1.0 2.0 0.00 0.00 0.00 90 1018.9
20260902115333 73 355 1.0 2.0 0.00 0.00 0.00 90 1018.9
20260902115218 73 355 0.0 2.0 0.00 0.00 0.00 90 1018.9
20260902115125 73 355 0.0 2.0 0.00 0.00 0.00 90 1018.8
20260902115032 73 355 0.0 2.0 0.00 0.00 0.00 90 1018.8
20260902114921 73 355 0.0 2.0 0.00 0.00 0.00 90 1018.8
20260902114827 73 355 1.0 2.0 0.00 0.00 0.00 90 1018.7
20260902114758 73 355 1.0 2.0 0.00 0.00 0.00 90 1018.7
20260902114530 73 355 1.0 2.0 0.00 0.00 0.00 91 1018.7
20260902114416 73 355 1.0 2.0 0.00 0.00 0.00 91 1018.7
20260902114327 73 355 1.0 2.0 0.00 0.00 0.00 91 1018.7
20260902114256 73 355 1.0 2.0 0.00 0.00 0.00 91 1018.6
20260902114120 73 355 1.0 3.0 0.00 0.00 0.00 91 1018.7
20260902114028 73 355 2.0 3.0 0.00 0.00 0.00 91 1018.7
20260902113935 73 355 2.0 3.0 0.00 0.00 0.00 91 1018.6
20260902113843 73 355 2.0 3.0 0.00 0.00 0.00 91 1018.6
20260902113731 73 355 2.0 3.0 0.00 0.00 0.00 90 1018.6
20260902113617 73 355 2.0 3.0 0.00 0.00 0.00 90 1018.6
20260902113524 73 355 2.0 3.0 0.00 0.00 0.00 90 1018.5
20260902113431 73 355 1.0 3.0 0.00 0.00 0.00 90 1018.5
20260902113318 73 355 0.0 2.0 0.00 0.00 0.00 90 1018.5
20260902113252 73 355 0.0 2.0 0.00 0.00 0.00 90 1018.5
20260902113025 73 355 0.0 0.0 0.00 0.00 0.00 91 1018.6
20260902112931 73 355 0.0 0.0 0.00 0.00 0.00 91 1018.6
20260902112836 73 355 0.0 1.0 0.00 0.00 0.00 91 1018.6
20260902112721 73 355 0.0 2.0 0.00 0.00 0.00 91 1018.6
20260902112628 73 355 0.0 2.0 0.00 0.00 0.00 91 1018.6
20260902112520 73 355 0.0 2.0 0.00 0.00 0.00 91 1018.6
20260902112426 73 355 0.0 2.0 0.00 0.00 0.00 91 1018.6
20260902112334 73 355 0.0 2.0 0.00 0.00 0.00 91 1018.6
20260902112220 73 355 0.0 2.0 0.00 0.00 0.00 91 1018.7
20260902112127 73 355 0.0 2.0 0.00 0.00 0.00 91 1018.6
20260902112017 73 355 1.0 2.0 0.00 0.00 0.00 91 1018.6
20260902111924 73 355 1.0 2.0 0.00 0.00 0.00 91 1018.5
20260902111832 73 355 1.0 2.0 0.00 0.00 0.00 91 1018.4
20260902111801 73 355 1.0 2.0 0.00 0.00 0.00 91 1018.4
20260902111517 73 355 1.0 2.0 0.00 0.00 0.00 91 1018.4
20260902111424 73 355 1.0 2.0 0.00 0.00 0.00 91 1018.5
20260902111330 73 355 1.0 2.0 0.00 0.00 0.00 91 1018.5
20260902111219 73 355 1.0 2.0 0.00 0.00 0.00 91 1018.5
20260902111146 73 355 1.0 2.0 0.00 0.00 0.00 91 1018.4
20260902111033 73 355 1.0 2.0 0.00 0.00 0.00 91 1018.5
20260902110940 73 355 1.0 2.0 0.00 0.00 0.00 91 1018.4
20260902110830 73 355 1.0 2.0 0.00 0.00 0.00 91 1018.4
20260902110736 73 355 1.0 3.0 0.00 0.00 0.00 91 1018.5
20260902110621 73 355 1.0 3.0 0.00 0.00 0.00 90 1018.5
20260902110529 73 355 1.0 3.0 0.00 0.00 0.00 90 1018.4
20260902110417 73 355 1.0 3.0 0.00 0.00 0.00 91 1018.4
20260902110343 73 355 1.0 3.0 0.00 0.00 0.00 91 1018.5
20260902110317 73 355 1.0 3.0 0.00 0.00 0.00 91 1018.5
20260902110029 73 355 2.0 3.0 0.00 0.00 0.00 91 1018.4
20260902105936 73 355 2.0 3.0 0.00 0.00 0.00 91 1018.5
20260902105822 73 355 2.0 3.0 0.00 0.00 0.00 91 1018.3
20260902105730 73 355 2.0 3.0 0.00 0.00 0.00 91 1018.4
20260902105621 73 355 2.0 3.0 0.00 0.00 0.00 91 1018.4
20260902105530 73 355 2.0 3.0 0.00 0.00 0.00 91 1018.4
20260902105436 73 355 2.0 3.0 0.00 0.00 0.00 90 1018.4
20260902105323 73 355 2.0 3.0 0.00 0.00 0.00 90 1018.5
20260902105229 73 355 2.0 3.0 0.00 0.00 0.00 90 1018.4
20260902105119 73 355 2.0 2.0 0.00 0.00 0.00 90 1018.4
20260902105026 73 355 1.0 2.0 0.00 0.00 0.00 90 1018.4
20260902104953 73 355 1.0 3.0 0.00 0.00 0.00 90 1018.4
20260902104809 73 355 1.0 3.0 0.00 0.00 0.00 90 1018.2
20260902104527 73 355 2.0 3.0 0.00 0.00 0.00 90 1018.3
20260902104435 73 355 2.0 3.0 0.00 0.00 0.00 90 1018.3
20260902104323 73 355 2.0 3.0 0.00 0.00 0.00 90 1018.3
20260902104229 73 355 2.0 3.0 0.00 0.00 0.00 90 1018.2
20260902104117 73 355 2.0 3.0 0.00 0.00 0.00 90 1018.3
20260902104025 73 355 2.0 3.0 0.00 0.00 0.00 90 1018.3
20260902103936 73 355 2.0 3.0 0.00 0.00 0.00 90 1018.3
20260902103822 73 355 2.0 3.0 0.00 0.00 0.00 90 1018.3
20260902103729 73 355 1.0 3.0 0.00 0.00 0.00 89 1018.3
20260902103616 73 355 0.0 0.0 0.00 0.00 0.00 90 1018.3
20260902103523 73 355 0.0 0.0 0.00 0.00 0.00 90 1018.2
20260902103434 73 355 0.0 0.0 0.00 0.00 0.00 90 1018.2
20260902103340 73 355 0.0 0.0 0.00 0.00 0.00 89 1018.2
20260902103310 73 355 0.0 0.0 0.00 0.00 0.00 89 1018.2
20260902103022 73 355 0.0 0.0 0.00 0.00 0.00 90 1018.2
20260902102928 73 355 0.0 0.0 0.00 0.00 0.00 90 1018.1
20260902102818 73 355 0.0 0.0 0.00 0.00 0.00 90 1018.1
20260902102724 73 355 0.0 0.0 0.00 0.00 0.00 90 1018.1
20260902102651 73 355 0.0 0.0 0.00 0.00 0.00 90 1018.1
20260902102557 73 355 0.0 0.0 0.00 0.00 0.00 90 1018.1
20260902102442 73 355 0.0 0.0 0.00 0.00 0.00 90 1018.0
20260902102327 73 355 0.0 0.0 0.00 0.00 0.00 90 1018.1
20260902102217 73 355 0.0 0.0 0.00 0.00 0.00 90 1018.0
20260902102124 73 355 0.0 0.0 0.00 0.00 0.00 90 1018.1
20260902102031 73 355 0.0 0.0 0.00 0.00 0.00 90 1018.0
20260902101919 73 355 0.0 0.0 0.00 0.00 0.00 90 1018.1
20260902101801 73 355 0.0 0.0 0.00 0.00 0.00 90 1018.0
20260902101535 73 355 0.0 0.0 0.00 0.00 0.00 90 1018.0
20260902101423 73 355 0.0 0.0 0.00 0.00 0.00 90 1018.1
20260902101331 73 355 0.0 0.0 0.00 0.00 0.00 90 1018.1
20260902101217 73 355 0.0 0.0 0.00 0.00 0.00 89 1018.1
20260902101128 73 355 0.0 0.0 0.00 0.00 0.00 89 1018.1
20260902101036 73 355 0.0 0.0 0.00 0.00 0.00 89 1018.1
20260902100923 73 355 0.0 0.0 0.00 0.00 0.00 89 1018.0
20260902100830 73 355 0.0 0.0 0.00 0.00 0.00 89 1018.1
20260902100717 73 355 0.0 0.0 0.00 0.00 0.00 90 1018.0
20260902100624 73 355 0.0 0.0 0.00 0.00 0.00 90 1018.1
20260902100516 73 355 0.0 0.0 0.00 0.00 0.00 90 1018.1
20260902100445 73 355 0.0 0.0 0.00 0.00 0.00 90 1018.0
20260902100351 73 355 0.0 0.0 0.00 0.00 0.00 90 1018.1
20260902100300 73 355 0.0 0.0 0.00 0.00 0.00 90 1018.1
20260902100053 73 355 0.0 0.0 0.00 0.00 0.00 90 1018.0
20260902095923 73 355 0.0 0.0 0.00 0.00 0.00 90 1018.0
20260902095830 73 355 0.0 0.0 0.00 0.00 0.00 90 1018.0
20260902095717 73 355 0.0 0.0 0.00 0.00 0.00 89 1018.0
20260902095624 73 355 0.0 0.0 0.00 0.00 0.00 89 1018.0
20260902095531 73 355 0.0 0.0 0.00 0.00 0.00 89 1018.1
20260902095418 73 355 0.0 0.0 0.00 0.00 0.00 90 1018.0
20260902095328 73 355 0.0 0.0 0.00 0.00 0.00 90 1018.0
20260902095236 73 355 0.0 0.0 0.00 0.00 0.00 90 1018.0
20260902095122 73 355 0.0 0.0 0.00 0.00 0.00 90 1017.9
20260902095030 73 355 0.0 0.0 0.00 0.00 0.00 90 1018.0
20260902094918 73 355 0.0 0.0 0.00 0.00 0.00 90 1018.0
20260902094828 73 355 0.0 0.0 0.00 0.00 0.00 90 1017.9
20260902094800 73 355 0.0 0.0 0.00 0.00 0.00 90 1017.9
20260902094533 73 355 0.0 0.0 0.00 0.00 0.00 89 1017.9
20260902094420 73 355 0.0 0.0 0.00 0.00 0.00 89 1017.8
20260902094347 73 355 0.0 0.0 0.00 0.00 0.00 89 1017.9
20260902094253 73 355 0.0 0.0 0.00 0.00 0.00 89 1017.8
20260902094143 73 355 0.0 0.0 0.00 0.00 0.00 89 1017.8
20260902094028 73 355 0.0 0.0 0.00 0.00 0.00 89 1017.8
20260902093935 73 355 0.0 0.0 0.00 0.00 0.00 89 1017.8
20260902093823 73 355 0.0 0.0 0.00 0.00 0.00 89 1017.9
20260902093730 73 355 0.0 0.0 0.00 0.00 0.00 89 1017.8
20260902093637 74 355 0.0 1.0 0.00 0.00 0.00 89 1017.9
20260902093527 74 355 0.0 1.0 0.00 0.00 0.00 89 1017.8
20260902093453 74 355 0.0 1.0 0.00 0.00 0.00 89 1017.9
20260902093319 74 355 0.0 2.0 0.00 0.00 0.00 90 1017.9
20260902093251 74 355 0.0 2.0 0.00 0.00 0.00 90 1017.9
20260902093022 74 355 0.0 2.0 0.00 0.00 0.00 90 1017.8
20260902092931 74 355 0.0 2.0 0.00 0.00 0.00 90 1017.9
20260902092816 74 355 0.0 2.0 0.00 0.00 0.00 90 1017.9
20260902092723 74 355 1.0 2.0 0.00 0.00 0.00 90 1017.9
20260902092628 74 355 1.0 2.0 0.00 0.00 0.00 90 1017.8
20260902092535 74 355 1.0 2.0 0.00 0.00 0.00 90 1017.7
20260902092426 74 355 1.0 2.0 0.00 0.00 0.00 90 1017.7
20260902092334 74 355 1.0 2.0 0.00 0.00 0.00 90 1017.8
20260902092219 74 355 1.0 2.0 0.00 0.00 0.00 90 1017.7
20260902092127 74 355 1.0 2.0 0.00 0.00 0.00 90 1017.7
20260902092033 74 355 1.0 2.0 0.00 0.00 0.00 90 1017.7
20260902091920 74 355 1.0 2.0 0.00 0.00 0.00 90 1017.7
20260902091852 74 355 0.0 2.0 0.00 0.00 0.00 90 1017.7
20260902091824 74 355 0.0 1.0 0.00 0.00 0.00 90 1017.7
20260902091518 74 355 0.0 2.0 0.00 0.00 0.00 90 1017.6
20260902091426 74 355 0.0 2.0 0.00 0.00 0.00 90 1017.6
20260902091352 74 355 0.0 2.0 0.00 0.00 0.00 90 1017.6
20260902091222 74 355 1.0 2.0 0.00 0.00 0.00 89 1017.6
20260902091129 74 355 1.0 2.0 0.00 0.00 0.00 89 1017.6
20260902091017 74 355 1.0 2.0 0.00 0.00 0.00 89 1017.6
20260902090923 74 355 1.0 2.0 0.00 0.00 0.00 89 1017.6
20260902090851 74 355 1.0 2.0 0.00 0.00 0.00 89 1017.5
20260902090717 74 355 1.0 2.0 0.00 0.00 0.00 88 1017.5
20260902090628 74 355 1.0 2.0 0.00 0.00 0.00 88 1017.6
20260902090555 74 355 1.0 2.0 0.00 0.00 0.00 88 1017.6
20260902090440 74 355 1.0 2.0 0.00 0.00 0.00 89 1017.5
20260902090345 74 355 1.0 2.0 0.00 0.00 0.00 89 1017.5
20260902090318 74 355 1.0 2.0 0.00 0.00 0.00 89 1017.5
20260902090050 74 355 0.0 2.0 0.00 0.00 0.00 89 1017.6
20260902085920 74 355 0.0 1.0 0.00 0.00 0.00 89 1017.5
20260902085846 74 355 0.0 1.0 0.00 0.00 0.00 89 1017.5
20260902085752 74 355 0.0 1.0 0.00 0.00 0.00 89 1017.5
20260902085617 74 355 0.0 1.0 0.00 0.00 0.00 89 1017.4
20260902085524 74 355 0.0 1.0 0.00 0.00 0.00 89 1017.5
20260902085450 74 355 0.0 1.0 0.00 0.00 0.00 89 1017.5
20260902085318 74 355 0.0 1.0 0.00 0.00 0.00 89 1017.4
20260902085230 74 355 0.0 1.0 0.00 0.00 0.00 89 1017.4
20260902085117 74 355 0.0 2.0 0.00 0.00 0.00 90 1017.5
20260902085024 74 355 0.0 2.0 0.00 0.00 0.00 90 1017.4
20260902084930 74 355 0.0 2.0 0.00 0.00 0.00 89 1017.5
20260902084816 75 355 0.0 2.0 0.00 0.00 0.00 89 1017.5
20260902084751 75 355 0.0 2.0 0.00 0.00 0.00 89 1017.5
20260902084523 74 355 0.0 2.0 0.00 0.00 0.00 89 1017.5
20260902084430 74 355 1.0 2.0 0.00 0.00 0.00 89 1017.4
20260902084336 74 355 1.0 2.0 0.00 0.00 0.00 89 1017.4
20260902084224 74 355 1.0 2.0 0.00 0.00 0.00 89 1017.4
20260902084116 74 355 1.0 3.0 0.00 0.00 0.00 88 1017.4
20260902084022 74 355 1.0 3.0 0.00 0.00 0.00 88 1017.4
20260902083931 74 355 1.0 3.0 0.00 0.00 0.00 88 1017.4
20260902083818 74 355 1.0 3.0 0.00 0.00 0.00 88 1017.3
20260902083726 74 355 1.0 3.0 0.00 0.00 0.00 88 1017.4
20260902083636 74 355 1.0 3.0 0.00 0.00 0.00 87 1017.4
20260902083541 74 355 2.0 3.0 0.00 0.00 0.00 87 1017.4
20260902083428 74 355 2.0 3.0 0.00 0.00 0.00 87 1017.3
20260902083307 74 355 2.0 3.0 0.00 0.00 0.00 87 1017.4
20260902083023 74 355 2.0 3.0 0.00 0.00 0.00 87 1017.2
20260902082930 74 355 2.0 3.0 0.00 0.00 0.00 87 1017.3
20260902082836 75 355 2.0 3.0 0.00 0.00 0.00 87 1017.3
20260902082723 75 355 2.0 3.0 0.00 0.00 0.00 88 1017.3
20260902082630 75 355 2.0 3.0 0.00 0.00 0.00 88 1017.2
20260902082520 75 355 2.0 3.0 0.00 0.00 0.00 88 1017.2
20260902082428 75 355 2.0 2.0 0.00 0.00 0.00 88 1017.2
20260902082334 75 355 2.0 3.0 0.00 0.00 0.00 88 1017.2
20260902082222 75 355 2.0 3.0 0.00 0.00 0.00 88 1017.2
20260902082130 75 355 1.0 3.0 0.00 0.00 0.00 88 1017.3
20260902082017 75 355 1.0 3.0 0.00 0.00 0.00 88 1017.4
20260902081928 75 355 1.0 3.0 0.00 0.00 0.00 88 1017.3
20260902081856 75 355 2.0 3.0 0.00 0.00 0.00 88 1017.3
20260902081806 75 355 2.0 3.0 0.00 0.00 0.00 88 1017.3
20260902081518 75 355 2.0 4.0 0.00 0.00 0.00 89 1017.3
20260902081425 75 5 2.0 4.0 0.00 0.00 0.00 88 1017.3
20260902081316 75 5 3.0 4.0 0.00 0.00 0.00 88 1017.3
20260902081245 75 5 2.0 4.0 0.00 0.00 0.00 88 1017.2
20260902081130 75 5 3.0 4.0 0.00 0.00 0.00 88 1017.2
20260902081018 75 12 3.0 4.0 0.00 0.00 0.00 88 1017.2
20260902080924 75 9 3.0 4.0 0.00 0.00 0.00 88 1017.2
20260902080830 75 12 2.0 4.0 0.00 0.00 0.00 88 1017.2
20260902080721 75 15 2.0 3.0 0.00 0.00 0.00 88 1017.2
20260902080628 75 5 2.0 3.0 0.00 0.00 0.00 88 1017.2
20260902080534 75 355 2.0 3.0 0.00 0.00 0.00 88 1017.2
20260902080422 75 355 2.0 3.0 0.00 0.00 0.00 88 1017.2
20260902080330 75 355 2.0 3.0 0.00 0.00 0.00 88 1017.2
20260902080305 75 355 2.0 4.0 0.00 0.00 0.00 88 1017.2
20260902080017 75 355 1.0 4.0 0.00 0.00 0.00 88 1017.1
20260902075926 75 355 2.0 4.0 0.00 0.00 0.00 88 1017.1
20260902075833 75 355 2.0 4.0 0.00 0.00 0.00 88 1017.2
20260902075740 75 355 2.0 4.0 0.00 0.00 0.00 88 1017.1
20260902075646 75 355 2.0 4.0 0.00 0.00 0.00 88 1017.2
20260902075556 75 355 2.0 4.0 0.00 0.00 0.00 88 1017.2
20260902075422 75 355 3.0 4.0 0.00 0.00 0.00 88 1017.2
20260902075328 75 5 3.0 4.0 0.00 0.00 0.00 88 1017.1
20260902075216 75 355 3.0 4.0 0.00 0.00 0.00 88 1017.1
20260902075144 75 14 3.0 4.0 0.00 0.00 0.00 88 1017.1
20260902075031 75 29 3.0 4.0 0.00 0.00 0.00 87 1017.2
20260902074921 75 9 2.0 3.0 0.00 0.00 0.00 87 1017.1
20260902074827 75 26 0.0 2.0 0.00 0.00 0.00 87 1017.0
20260902074757 75 26 0.0 2.0 0.00 0.00 0.00 87 1017.0
20260902074530 75 308 0.0 0.0 0.00 0.00 0.00 88 1017.0
20260902074416 75 286 0.0 0.0 0.00 0.00 0.00 88 1017.0
20260902074328 75 286 0.0 0.0 0.00 0.00 0.00 88 1017.0
20260902074234 75 286 0.0 0.0 0.00 0.00 0.00 88 1017.0
20260902074122 75 286 0.0 0.0 0.00 0.00 0.00 88 1017.0
20260902074028 75 286 0.0 0.0 0.00 0.00 0.00 88 1017.0
20260902073934 75 286 0.0 0.0 0.00 0.00 0.00 88 1016.9
20260902073842 75 286 0.0 0.0 0.00 0.00 0.00 88 1016.9
20260902073732 75 284 0.0 0.0 0.00 0.00 0.00 88 1016.9
20260902073619 75 283 0.0 0.0 0.00 0.00 0.00 88 1017.0
20260902073527 75 288 0.0 0.0 0.00 0.00 0.00 88 1016.9
20260902073435 75 273 0.0 0.0 0.00 0.00 0.00 88 1016.9
20260902073342 75 350 0.0 0.0 0.00 0.00 0.00 88 1016.8
20260902073255 75 350 0.0 0.0 0.00 0.00 0.00 88 1016.8
20260902073049 75 350 0.0 0.0 0.00 0.00 0.00 88 1016.8
20260902072935 75 350 0.0 0.0 0.00 0.00 0.00 88 1016.8
20260902072843 75 350 0.0 0.0 0.00 0.00 0.00 88 1016.9
20260902072750 75 350 0.0 0.0 0.00 0.00 0.00 88 1016.9
20260902072636 75 350 0.0 0.0 0.00 0.00 0.00 88 1016.9
20260902072522 75 350 0.0 0.0 0.00 0.00 0.00 88 1016.8
20260902072432 75 350 0.0 0.0 0.00 0.00 0.00 88 1017.0
20260902072318 75 350 0.0 0.0 0.00 0.00 0.00 88 1017.0
20260902072226 75 350 0.0 0.0 0.00 0.00 0.00 88 1016.9
20260902072132 75 350 0.0 0.0 0.00 0.00 0.00 88 1017.0
20260902072019 76 350 0.0 0.0 0.00 0.00 0.00 88 1017.0
20260902071931 76 350 0.0 0.0 0.00 0.00 0.00 88 1016.9
20260902071819 76 350 0.0 0.0 0.00 0.00 0.00 88 1016.9
20260902071750 75 350 0.0 0.0 0.00 0.00 0.00 88 1016.9
20260902071523 75 349 0.0 0.0 0.00 0.00 0.00 88 1016.9
20260902071429 75 350 0.0 0.0 0.00 0.00 0.00 88 1017.0
20260902071321 75 350 0.0 0.0 0.00 0.00 0.00 87 1017.0
20260902071228 75 349 0.0 0.0 0.00 0.00 0.00 87 1017.0
20260902071135 75 350 0.0 0.0 0.00 0.00 0.00 87 1017.0
20260902071043 75 350 0.0 0.0 0.00 0.00 0.00 87 1017.1
20260902070928 75 350 0.0 0.0 0.00 0.00 0.00 87 1017.1
20260902070821 75 350 0.0 0.0 0.00 0.00 0.00 86 1017.1
20260902070728 75 350 0.0 0.0 0.00 0.00 0.00 86 1017.1
20260902070635 75 350 0.0 0.0 0.00 0.00 0.00 86 1017.0
20260902070522 76 349 0.0 0.0 0.00 0.00 0.00 87 1017.1
20260902070429 76 350 0.0 0.0 0.00 0.00 0.00 87 1017.1
20260902070316 76 350 0.0 0.0 0.00 0.00 0.00 87 1017.2
20260902070251 76 350 0.0 0.0 0.00 0.00 0.00 87 1017.2
20260902070023 76 350 0.0 0.0 0.00 0.00 0.00 87 1017.1
20260902065928 76 350 0.0 0.0 0.00 0.00 0.00 87 1017.2
20260902065857 76 350 0.0 0.0 0.00 0.00 0.00 87 1017.2
20260902065742 76 350 0.0 0.0 0.00 0.00 0.00 87 1017.1
20260902065633 76 350 0.0 0.0 0.00 0.00 0.00 87 1017.2
20260902065520 76 325 0.0 0.0 0.00 0.00 0.00 86 1017.1
20260902065425 76 325 0.0 0.0 0.00 0.00 0.00 86 1017.1
20260902065333 76 325 0.0 0.0 0.00 0.00 0.00 86 1017.1
20260902065220 76 325 0.0 0.0 0.00 0.00 0.00 85 1017.2
20260902065128 76 325 0.0 0.0 0.00 0.00 0.00 85 1017.2
20260902065018 76 325 0.0 0.0 0.00 0.00 0.00 85 1017.2
20260902064924 76 325 0.0 0.0 0.00 0.00 0.00 85 1017.2
20260902064803 76 325 0.0 0.0 0.00 0.00 0.00 85 1017.2
20260902064521 76 325 0.0 0.0 0.00 0.00 0.00 85 1017.2
20260902064427 76 325 0.0 0.0 0.00 0.00 0.00 85 1017.3
20260902064334 76 325 0.0 0.0 0.00 0.00 0.00 85 1017.3
20260902064221 76 325 0.0 0.0 0.00 0.00 0.00 86 1017.3
20260902064127 76 325 0.0 0.0 0.00 0.00 0.00 86 1017.3
20260902064054 76 325 0.0 0.0 0.00 0.00 0.00 86 1017.4
20260902063924 76 325 0.0 0.0 0.00 0.00 0.00 86 1017.3
20260902063851 76 325 0.0 0.0 0.00 0.00 0.00 86 1017.4
20260902063717 76 325 0.0 0.0 0.00 0.00 0.00 86 1017.4
20260902063625 76 325 0.0 0.0 0.00 0.00 0.00 86 1017.4
20260902063531 76 325 0.0 0.0 0.00 0.00 0.00 86 1017.4
20260902063438 76 325 0.0 0.0 0.00 0.00 0.00 86 1017.4
20260902063326 76 325 0.0 0.0 0.00 0.00 0.00 86 1017.3
20260902063256 76 325 0.0 0.0 0.00 0.00 0.00 86 1017.3
20260902063030 76 325 0.0 0.0 0.00 0.00 0.00 86 1017.4
20260902062917 76 325 0.0 0.0 0.00 0.00 0.00 86 1017.4
20260902062823 76 325 0.0 0.0 0.00 0.00 0.00 86 1017.5
20260902062735 76 325 0.0 0.0 0.00 0.00 0.00 86 1017.4
20260902062622 77 325 0.0 0.0 0.00 0.00 0.00 86 1017.4
20260902062529 77 325 0.0 0.0 0.00 0.00 0.00 86 1017.5
20260902062416 76 325 0.0 0.0 0.00 0.00 0.00 86 1017.5
20260902062324 77 325 0.0 0.0 0.00 0.00 0.00 86 1017.4
20260902062234 77 325 0.0 0.0 0.00 0.00 0.00 86 1017.4
20260902062121 77 325 0.0 0.0 0.00 0.00 0.00 86 1017.4
20260902062048 77 325 0.0 0.0 0.00 0.00 0.00 86 1017.5
20260902061935 77 325 0.0 0.0 0.00 0.00 0.00 86 1017.5
20260902061822 77 325 0.0 0.0 0.00 0.00 0.00 86 1017.5
20260902061755 77 325 0.0 0.0 0.00 0.00 0.00 86 1017.5
20260902061549 77 325 0.0 0.0 0.00 0.00 0.00 86 1017.5
20260902061455 77 325 0.0 0.0 0.00 0.00 0.00 86 1017.5
20260902061400 77 325 0.0 0.0 0.00 0.00 0.00 86 1017.5
20260902061225 77 325 0.0 0.0 0.00 0.00 0.00 85 1017.6
20260902061150 77 325 0.0 0.0 0.00 0.00 0.00 85 1017.6
20260902061016 77 325 0.0 0.0 0.00 0.00 0.00 85 1017.5
20260902060924 77 325 0.0 0.0 0.00 0.00 0.00 85 1017.5
20260902060835 77 325 0.0 0.0 0.00 0.00 0.00 85 1017.5
20260902060722 77 325 0.0 0.0 0.00 0.00 0.00 84 1017.5
20260902060629 77 325 0.0 0.0 0.00 0.00 0.00 83 1017.5
20260902060535 77 325 0.0 0.0 0.00 0.00 0.00 83 1017.5
20260902060422 77 325 0.0 0.0 0.00 0.00 0.00 83 1017.5
20260902060303 77 325 0.0 0.0 0.00 0.00 0.00 83 1017.5
20260902060036 77 325 0.0 0.0 0.00 0.00 0.00 83 1017.5
20260902055922 77 325 0.0 0.0 0.00 0.00 0.00 83 1017.5
20260902055829 77 325 0.0 0.0 0.00 0.00 0.00 82 1017.5
20260902055739 77 325 0.0 0.0 0.00 0.00 0.00 82 1017.5
20260902055624 77 325 0.0 0.0 0.00 0.00 0.00 82 1017.6
20260902055532 77 325 0.0 0.0 0.00 0.00 0.00 82 1017.6
20260902055416 77 325 0.0 0.0 0.00 0.00 0.00 82 1017.6
20260902055323 77 325 0.0 0.0 0.00 0.00 0.00 82 1017.5
20260902055229 77 325 0.0 0.0 0.00 0.00 0.00 82 1017.7
20260902055120 77 325 0.0 0.0 0.00 0.00 0.00 82 1017.5
20260902055028 77 325 0.0 0.0 0.00 0.00 0.00 82 1017.6
20260902054936 77 325 0.0 0.0 0.00 0.00 0.00 81 1017.6
20260902054824 77 325 0.0 0.0 0.00 0.00 0.00 81 1017.6
20260902054758 77 325 0.0 0.0 0.00 0.00 0.00 81 1017.6
20260902054531 77 325 0.0 0.0 0.00 0.00 0.00 82 1017.6
20260902054417 77 325 0.0 0.0 0.00 0.00 0.00 83 1017.6
20260902054325 77 325 0.0 0.0 0.00 0.00 0.00 82 1017.5
20260902054234 77 325 0.0 0.0 0.00 0.00 0.00 82 1017.6
20260902054122 77 325 0.0 0.0 0.00 0.00 0.00 82 1017.6
20260902054032 77 325 0.0 0.0 0.00 0.00 0.00 82 1017.6
20260902053939 78 325 0.0 0.0 0.00 0.00 0.00 82 1017.6
20260902053825 78 325 0.0 0.0 0.00 0.00 0.00 82 1017.6
20260902053732 78 325 0.0 0.0 0.00 0.00 0.00 83 1017.6
20260902053619 78 325 0.0 0.0 0.00 0.00 0.00 83 1017.5
20260902053526 78 325 0.0 0.0 0.00 0.00 0.00 83 1017.6
20260902053416 78 325 0.0 0.0 0.00 0.00 0.00 83 1017.6
20260902053324 78 325 0.0 0.0 0.00 0.00 0.00 83 1017.6
20260902053255 78 325 0.0 0.0 0.00 0.00 0.00 83 1017.6
20260902053027 78 325 0.0 0.0 0.00 0.00 0.00 83 1017.7
20260902052940 78 325 0.0 0.0 0.00 0.00 0.00 83 1017.7
20260902052826 78 325 0.0 0.0 0.00 0.00 0.00 83 1017.7
20260902052732 78 325 0.0 0.0 0.00 0.00 0.00 83 1017.8
20260902052619 78 325 0.0 0.0 0.00 0.00 0.00 82 1017.9
20260902052527 78 325 0.0 0.0 0.00 0.00 0.00 82 1017.8
20260902052435 78 325 0.0 0.0 0.00 0.00 0.00 82 1017.8
20260902052327 78 325 0.0 0.0 0.00 0.00 0.00 82 1017.8
20260902052233 78 325 0.0 0.0 0.00 0.00 0.00 82 1017.6
20260902052120 78 325 0.0 0.0 0.00 0.00 0.00 81 1017.8
20260902052026 78 325 0.0 1.0 0.00 0.00 0.00 81 1017.8
20260902051932 78 325 0.0 1.0 0.00 0.00 0.00 81 1017.7
20260902051840 78 325 0.0 1.0 0.00 0.00 0.00 81 1017.7
20260902051753 78 325 0.0 1.0 0.00 0.00 0.00 81 1017.7
20260902051525 78 325 0.0 1.0 0.00 0.00 0.00 81 1017.7
20260902051433 78 325 0.0 1.0 0.00 0.00 0.00 81 1017.7
20260902051320 78 325 0.0 1.0 0.00 0.00 0.00 81 1017.7
20260902051228 78 325 0.0 1.0 0.00 0.00 0.00 82 1017.6
20260902051119 78 325 0.0 1.0 0.00 0.00 0.00 82 1017.6
20260902051025 78 325 0.0 1.0 0.00 0.00 0.00 82 1017.6
20260902050931 78 325 0.0 1.0 0.00 0.00 0.00 82 1017.6
20260902050838 78 325 0.0 1.0 0.00 0.00 0.00 82 1017.6
20260902050722 78 325 0.0 1.0 0.00 0.00 0.00 83 1017.7
20260902050629 78 325 0.0 1.0 0.00 0.00 0.00 83 1017.6
20260902050539 78 325 0.0 0.0 0.00 0.00 0.00 83 1017.7
20260902050425 78 325 0.0 0.0 0.00 0.00 0.00 83 1017.6
20260902050352 78 325 0.0 0.0 0.00 0.00 0.00 84 1017.6
20260902050301 78 325 0.0 0.0 0.00 0.00 0.00 84 1017.6
20260902050034 78 325 0.0 0.0 0.00 0.00 0.00 84 1017.7
20260902045926 78 325 0.0 0.0 0.00 0.00 0.00 84 1017.7
20260902045832 78 325 0.0 0.0 0.00 0.00 0.00 83 1017.7
20260902045718 78 325 0.0 0.0 0.00 0.00 0.00 83 1017.6
20260902045625 78 325 0.0 0.0 0.00 0.00 0.00 83 1017.7
20260902045530 78 325 0.0 0.0 0.00 0.00 0.00 83 1017.6
20260902045420 78 325 0.0 1.0 0.00 0.00 0.00 83 1017.6
20260902045328 78 325 0.0 1.0 0.00 0.00 0.00 83 1017.7
20260902045234 78 325 0.0 2.0 0.00 0.00 0.00 83 1017.5
20260902045141 78 325 0.0 2.0 0.00 0.00 0.00 83 1017.6
20260902045026 78 325 0.0 2.0 0.00 0.00 0.00 82 1017.6
20260902044933 78 325 0.0 2.0 0.00 0.00 0.00 82 1017.7
20260902044822 78 325 0.0 2.0 0.00 0.00 0.00 82 1017.6
20260902044753 78 325 0.0 2.0 0.00 0.00 0.00 81 1017.6
20260902044524 78 325 1.0 2.0 0.00 0.00 0.00 81 1017.7
20260902044432 78 325 1.0 2.0 0.00 0.00 0.00 81 1017.7
20260902044320 78 325 1.0 2.0 0.00 0.00 0.00 81 1017.6
20260902044230 78 325 1.0 2.0 0.00 0.00 0.00 81 1017.7
20260902044116 78 325 1.0 2.0 0.00 0.00 0.00 81 1017.6
20260902044024 78 325 1.0 2.0 0.00 0.00 0.00 81 1017.7
20260902043931 78 325 1.0 2.0 0.00 0.00 0.00 82 1017.7
20260902043817 78 325 1.0 2.0 0.00 0.00 0.00 82 1017.6
20260902043728 78 325 1.0 2.0 0.00 0.00 0.00 82 1017.7
20260902043634 79 325 1.0 2.0 0.00 0.00 0.00 83 1017.7
20260902043521 79 325 2.0 2.0 0.00 0.00 0.00 83 1017.7
20260902043449 79 325 1.0 2.0 0.00 0.00 0.00 83 1017.7
20260902043354 79 325 1.0 2.0 0.00 0.00 0.00 83 1017.7
20260902043324 79 325 0.0 2.0 0.00 0.00 0.00 84 1017.7
20260902043020 79 325 0.0 0.0 0.00 0.00 0.00 84 1017.7
20260902042947 79 325 0.0 0.0 0.00 0.00 0.00 84 1017.7
20260902042834 79 325 0.0 1.0 0.00 0.00 0.00 84 1017.7
20260902042722 79 325 0.0 1.0 0.00 0.00 0.00 83 1017.6
20260902042628 79 325 0.0 1.0 0.00 0.00 0.00 83 1017.8
20260902042519 79 325 0.0 1.0 0.00 0.00 0.00 83 1017.7
20260902042425 79 325 0.0 2.0 0.00 0.00 0.00 83 1017.7
20260902042353 79 325 0.0 2.0 0.00 0.00 0.00 83 1017.7
20260902042239 79 325 0.0 2.0 0.00 0.00 0.00 83 1017.8
20260902042125 79 325 0.0 2.0 0.00 0.00 0.00 83 1017.7
20260902042034 79 325 0.0 2.0 0.00 0.00 0.00 83 1017.8
20260902041920 79 325 0.0 2.0 0.00 0.00 0.00 83 1017.7
20260902041830 79 325 1.0 2.0 0.00 0.00 0.00 83 1017.7
20260902041800 79 325 1.0 2.0 0.00 0.00 0.00 83 1017.7
20260902041554 79 325 1.0 2.0 0.00 0.00 0.00 82 1017.8
20260902041421 79 325 1.0 2.0 0.00 0.00 0.00 83 1017.7
20260902041328 79 325 1.0 2.0 0.00 0.00 0.00 83 1017.8
20260902041221 79 325 1.0 1.0 0.00 0.00 0.00 83 1017.8
20260902041128 79 325 1.0 1.0 0.00 0.00 0.00 83 1017.8
20260902041035 79 325 0.0 1.0 0.00 0.00 0.00 83 1017.8
20260902040923 79 325 0.0 1.0 0.00 0.00 0.00 84 1017.8
20260902040829 79 325 0.0 1.0 0.00 0.00 0.00 84 1017.9
20260902040719 79 325 0.0 1.0 0.00 0.00 0.00 83 1017.9
20260902040626 79 325 0.0 1.0 0.00 0.00 0.00 83 1017.8
20260902040532 79 325 0.0 1.0 0.00 0.00 0.00 83 1017.8
20260902040418 79 325 0.0 2.0 0.00 0.00 0.00 83 1017.8
20260902040326 79 325 0.0 2.0 0.00 0.00 0.00 83 1017.8
20260902040300 79 325 0.0 2.0 0.00 0.00 0.00 83 1017.8
20260902040032 79 325 0.0 2.0 0.00 0.00 0.00 83 1017.8
20260902035938 79 325 0.0 2.0 0.00 0.00 0.00 83 1017.8
20260902035826 79 325 1.0 2.0 0.00 0.00 0.00 83 1017.7
20260902035733 79 325 1.0 2.0 0.00 0.00 0.00 83 1017.8
20260902035623 79 325 1.0 3.0 0.00 0.00 0.00 83 1017.8
20260902035530 79 325 1.0 3.0 0.00 0.00 0.00 82 1017.9
20260902035435 79 325 2.0 3.0 0.00 0.00 0.00 82 1017.9
20260902035320 79 325 2.0 3.0 0.00 0.00 0.00 80 1017.8
20260902035228 79 338 1.0 3.0 0.00 0.00 0.00 81 1017.9
20260902035135 79 345 1.0 3.0 0.00 0.00 0.00 81 1017.8
20260902035027 79 345 2.0 3.0 0.00 0.00 0.00 81 1017.8
20260902034934 79 345 2.0 3.0 0.00 0.00 0.00 81 1017.8
20260902034822 79 347 2.0 2.0 0.00 0.00 0.00 81 1017.7
20260902034752 79 347 1.0 2.0 0.00 0.00 0.00 81 1017.7
20260902034530 79 340 1.0 2.0 0.00 0.00 0.00 80 1017.7
20260902034416 79 340 2.0 2.0 0.00 0.00 0.00 81 1017.7
20260902034322 79 340 1.0 2.0 0.00 0.00 0.00 80 1017.7
20260902034231 79 340 1.0 3.0 0.00 0.00 0.00 80 1017.7
20260902034118 80 340 0.0 3.0 0.00 0.00 0.00 79 1017.7
20260902034025 80 340 0.0 3.0 0.00 0.00 0.00 79 1017.6
20260902033936 80 340 1.0 3.0 0.00 0.00 0.00 79 1017.7
20260902033821 80 340 1.0 3.0 0.00 0.00 0.00 79 1017.7
20260902033749 80 340 1.0 3.0 0.00 0.00 0.00 79 1017.8
20260902033656 80 340 1.0 3.0 0.00 0.00 0.00 78 1017.7
20260902033522 80 340 2.0 3.0 0.00 0.00 0.00 78 1017.6
20260902033448 80 340 1.0 3.0 0.00 0.00 0.00 78 1017.7
20260902033333 80 340 0.0 3.0 0.00 0.00 0.00 78 1017.7
20260902033308 80 340 0.0 1.0 0.00 0.00 0.00 79 1017.7
20260902033021 80 340 0.0 0.0 0.00 0.00 0.00 79 1017.7
20260902032929 80 340 0.0 0.0 0.00 0.00 0.00 79 1017.7
20260902032816 80 340 0.0 0.0 0.00 0.00 0.00 79 1017.8
20260902032726 80 340 0.0 0.0 0.00 0.00 0.00 79 1017.7
20260902032653 80 340 0.0 0.0 0.00 0.00 0.00 79 1017.7
20260902032517 80 340 0.0 0.0 0.00 0.00 0.00 79 1017.8
20260902032424 80 340 0.0 0.0 0.00 0.00 0.00 80 1017.7
20260902032331 80 340 0.0 0.0 0.00 0.00 0.00 80 1017.8
20260902032217 80 340 0.0 0.0 0.00 0.00 0.00 79 1017.8
20260902032128 80 340 0.0 0.0 0.00 0.00 0.00 79 1017.8
20260902032036 80 340 0.0 0.0 0.00 0.00 0.00 80 1017.8
20260902031922 80 340 0.0 0.0 0.00 0.00 0.00 80 1017.8
20260902031849 80 340 0.0 0.0 0.00 0.00 0.00 77 1017.9
20260902031758 80 340 0.0 0.0 0.00 0.00 0.00 77 1017.9
20260902031516 80 340 0.0 0.0 0.00 0.00 0.00 77 1017.8
20260902031442 80 340 0.0 0.0 0.00 0.00 0.00 77 1017.9
20260902031327 80 340 0.0 0.0 0.00 0.00 0.00 77 1017.8
20260902031233 80 340 0.0 0.0 0.00 0.00 0.00 77 1017.9
20260902031120 80 340 0.0 0.0 0.00 0.00 0.00 76 1017.7
20260902031026 81 340 0.0 0.0 0.00 0.00 0.00 76 1017.8
20260902030916 81 340 0.0 0.0 0.00 0.00 0.00 76 1017.9
20260902030843 81 340 0.0 0.0 0.00 0.00 0.00 76 1017.8
20260902030730 81 340 0.0 0.0 0.00 0.00 0.00 76 1017.9
20260902030617 81 340 0.0 0.0 0.00 0.00 0.00 77 1017.7
20260902030545 81 340 0.0 0.0 0.00 0.00 0.00 77 1017.8
20260902030450 81 340 0.0 0.0 0.00 0.00 0.00 77 1017.8
20260902030316 81 340 0.0 0.0 0.00 0.00 0.00 78 1017.8
20260902030250 81 340 0.0 0.0 0.00 0.00 0.00 79 1017.8
20260902030023 81 340 0.0 0.0 0.00 0.00 0.00 78 1017.8
20260902025930 81 340 0.0 0.0 0.00 0.00 0.00 77 1017.8
20260902025817 81 340 0.0 0.0 0.00 0.00 0.00 77 1017.8
20260902025727 81 340 0.0 0.0 0.00 0.00 0.00 77 1017.8
20260902025635 81 340 0.0 0.0 0.00 0.00 0.00 77 1017.8
20260902025523 81 340 0.0 0.0 0.00 0.00 0.00 77 1017.8
20260902025431 81 340 0.0 0.0 0.00 0.00 0.00 77 1017.9
20260902025316 81 340 0.0 0.0 0.00 0.00 0.00 78 1017.9
20260902025223 81 340 0.0 0.0 0.00 0.00 0.00 78 1017.8
20260902025135 81 340 0.0 0.0 0.00 0.00 0.00 78 1017.9
20260902025022 81 340 0.0 0.0 0.00 0.00 0.00 78 1017.9
20260902024951 81 340 0.0 0.0 0.00 0.00 0.00 78 1017.9
20260902024816 81 340 0.0 0.0 0.00 0.00 0.00 78 1017.9
20260902024751 81 340 0.0 0.0 0.00 0.00 0.00 78 1017.9
20260902024523 81 340 0.0 0.0 0.00 0.00 0.00 78 1017.8
20260902024450 81 340 0.0 0.0 0.00 0.00 0.00 78 1017.8
20260902024317 82 340 0.0 0.0 0.00 0.00 0.00 78 1017.9
20260902024245 82 340 0.0 0.0 0.00 0.00 0.00 77 1017.8
20260902024131 82 340 0.0 0.0 0.00 0.00 0.00 77 1017.8
20260902024017 82 340 0.0 0.0 0.00 0.00 0.00 78 1017.8
20260902023928 82 340 0.0 0.0 0.00 0.00 0.00 78 1017.7
20260902023834 82 340 0.0 0.0 0.00 0.00 0.00 78 1017.7
20260902023721 82 340 0.0 0.0 0.00 0.00 0.00 77 1017.7
20260902023628 82 340 0.0 0.0 0.00 0.00 0.00 77 1017.8
20260902023535 82 340 0.0 1.0 0.00 0.00 0.00 77 1017.8
20260902023427 82 340 0.0 1.0 0.00 0.00 0.00 77 1017.7
20260902023354 82 340 0.0 1.0 0.00 0.00 0.00 77 1017.7
20260902023303 82 340 0.0 2.0 0.00 0.00 0.00 77 1017.7
20260902023056 82 340 0.0 2.0 0.00 0.00 0.00 77 1017.7
20260902022920 82 340 0.0 3.0 0.00 0.00 0.00 76 1017.7
20260902022828 82 340 0.0 3.0 0.00 0.00 0.00 76 1017.7
20260902022718 82 340 0.0 3.0 0.00 0.00 0.00 75 1017.7
20260902022626 82 340 0.0 3.0 0.00 0.00 0.00 74 1017.6
20260902022532 82 340 1.0 3.0 0.00 0.00 0.00 74 1017.6
20260902022419 82 340 1.0 3.0 0.00 0.00 0.00 73 1017.6
20260902022325 82 340 2.0 3.0 0.00 0.00 0.00 73 1017.6
20260902022235 82 340 2.0 3.0 0.00 0.00 0.00 72 1017.6
20260902022142 82 340 2.0 3.0 0.00 0.00 0.00 72 1017.6
20260902022028 82 340 2.0 3.0 0.00 0.00 0.00 72 1017.6
20260902021934 82 340 2.0 3.0 0.00 0.00 0.00 72 1017.6
20260902021820 82 340 2.0 3.0 0.00 0.00 0.00 73 1017.7
20260902021753 82 340 2.0 3.0 0.00 0.00 0.00 73 1017.7
20260902021526 83 340 2.0 3.0 0.00 0.00 0.00 72 1017.6
20260902021433 83 340 2.0 3.0 0.00 0.00 0.00 72 1017.6
20260902021319 83 340 2.0 3.0 0.00 0.00 0.00 72 1017.6
20260902021246 83 340 2.0 3.0 0.00 0.00 0.00 72 1017.5
20260902021133 83 340 2.0 3.0 0.00 0.00 0.00 73 1017.6
20260902021025 83 340 2.0 2.0 0.00 0.00 0.00 73 1017.6
20260902020953 83 340 1.0 2.0 0.00 0.00 0.00 73 1017.5
20260902020818 83 340 1.0 2.0 0.00 0.00 0.00 73 1017.5
20260902020725 83 340 1.0 2.0 0.00 0.00 0.00 73 1017.5
20260902020632 83 340 1.0 2.0 0.00 0.00 0.00 73 1017.5
20260902020518 83 340 1.0 2.0 0.00 0.00 0.00 73 1017.5
20260902020451 83 340 1.0 2.0 0.00 0.00 0.00 72 1017.4
20260902020356 83 340 2.0 2.0 0.00 0.00 0.00 72 1017.4
20260902020306 83 340 2.0 2.0 0.00 0.00 0.00 70 1017.4
20260902020040 84 340 2.0 2.0 0.00 0.00 0.00 70 1017.4
20260902015927 84 340 1.0 2.0 0.00 0.00 0.00 70 1017.4
20260902015817 84 340 1.0 2.0 0.00 0.00 0.00 70 1017.4
20260902015725 84 340 1.0 2.0 0.00 0.00 0.00 70 1017.4
20260902015652 84 340 1.0 2.0 0.00 0.00 0.00 70 1017.4
20260902015538 84 340 1.0 2.0 0.00 0.00 0.00 70 1017.4
20260902015424 84 340 2.0 2.0 0.00 0.00 0.00 70 1017.4
20260902015332 84 340 1.0 2.0 0.00 0.00 0.00 71 1017.4
20260902015219 84 340 0.0 2.0 0.00 0.00 0.00 72 1017.3
20260902015129 84 340 0.0 0.0 0.00 0.00 0.00 72 1017.4
20260902015016 84 340 0.0 0.0 0.00 0.00 0.00 72 1017.4
20260902014922 84 340 0.0 0.0 0.00 0.00 0.00 72 1017.4
20260902014849 84 340 0.0 0.0 0.00 0.00 0.00 72 1017.4
20260902014759 85 340 0.0 0.0 0.00 0.00 0.00 72 1017.4
20260902014516 85 340 0.0 0.0 0.00 0.00 0.00 71 1017.4
20260902014423 85 340 0.0 0.0 0.00 0.00 0.00 71 1017.3
20260902014330 85 340 0.0 0.0 0.00 0.00 0.00 71 1017.2
20260902014217 85 340 0.0 0.0 0.00 0.00 0.00 71 1017.3
20260902014124 85 340 0.0 0.0 0.00 0.00 0.00 70 1017.3
20260902014034 85 340 0.0 0.0 0.00 0.00 0.00 70 1017.3
20260902013921 85 340 0.0 0.0 0.00 0.00 0.00 70 1017.3
20260902013849 85 340 0.0 0.0 0.00 0.00 0.00 70 1017.2
20260902013735 85 340 0.0 0.0 0.00 0.00 0.00 70 1017.1
20260902013621 85 340 0.0 0.0 0.00 0.00 0.00 70 1017.2
20260902013528 85 340 0.0 0.0 0.00 0.00 0.00 69 1017.2
20260902013440 85 340 0.0 0.0 0.00 0.00 0.00 69 1017.2
20260902013326 86 340 0.0 0.0 0.00 0.00 0.00 69 1017.2
20260902013256 86 340 0.0 0.0 0.00 0.00 0.00 69 1017.2
20260902013048 86 340 0.0 0.0 0.00 0.00 0.00 69 1017.2
20260902012934 86 340 0.0 0.0 0.00 0.00 0.00 69 1017.2
20260902012824 86 340 0.0 0.0 0.00 0.00 0.00 68 1017.1
20260902012731 86 340 0.0 0.0 0.00 0.00 0.00 68 1017.1
20260902012617 86 340 0.0 0.0 0.00 0.00 0.00 69 1017.1
20260902012524 86 340 0.0 0.0 0.00 0.00 0.00 69 1017.1
20260902012433 86 340 0.0 0.0 0.00 0.00 0.00 68 1017.1
20260902012319 86 340 0.0 0.0 0.00 0.00 0.00 68 1017.1
20260902012249 87 340 0.0 0.0 0.00 0.00 0.00 68 1017.0
20260902012154 87 340 0.0 1.0 0.00 0.00 0.00 67 1017.1
20260902012041 87 340 0.0 2.0 0.00 0.00 0.00 67 1017.1
20260902011927 87 340 0.0 2.0 0.00 0.00 0.00 67 1017.0
20260902011856 87 340 0.0 2.0 0.00 0.00 0.00 67 1017.0
20260902011826 87 340 0.0 2.0 0.00 0.00 0.00 67 1017.1
20260902011520 87 340 0.0 2.0 0.00 0.00 0.00 65 1017.0
20260902011427 87 340 0.0 2.0 0.00 0.00 0.00 66 1017.0
20260902011333 87 340 1.0 2.0 0.00 0.00 0.00 65 1017.0
20260902011220 88 340 1.0 2.0 0.00 0.00 0.00 64 1017.0
20260902011127 88 340 1.0 2.0 0.00 0.00 0.00 65 1017.0
20260902011034 88 202 1.0 2.0 0.00 0.00 0.00 66 1017.0
20260902010924 88 202 1.0 2.0 0.00 0.00 0.00 64 1017.0
20260902010831 88 202 1.0 2.0 0.00 0.00 0.00 64 1017.0
20260902010738 88 202 0.0 2.0 0.00 0.00 0.00 63 1017.0
20260902010623 88 202 0.0 2.0 0.00 0.00 0.00 62 1017.0
20260902010530 88 202 0.0 2.0 0.00 0.00 0.00 62 1017.0
20260902010416 88 202 0.0 2.0 0.00 0.00 0.00 61 1017.0
20260902010329 88 202 0.0 3.0 0.00 0.00 0.00 62 1017.0
20260902010259 88 202 0.0 3.0 0.00 0.00 0.00 62 1017.0
20260902010032 88 202 0.0 3.0 0.00 0.00 0.00 62 1017.0
20260902005919 88 202 1.0 3.0 0.00 0.00 0.00 61 1017.0
20260902005829 88 202 1.0 3.0 0.00 0.00 0.00 61 1017.1
20260902005756 88 202 1.0 4.0 0.00 0.00 0.00 61 1017.0
20260902005622 88 202 2.0 4.0 0.00 0.00 0.00 61 1017.0
20260902005530 88 202 2.0 4.0 0.00 0.00 0.00 61 1017.1
20260902005416 88 200 2.0 4.0 0.00 0.00 0.00 61 1017.0
20260902005324 88 200 1.0 4.0 0.00 0.00 0.00 62 1017.0
20260902005216 88 200 2.0 4.0 0.00 0.00 0.00 61 1017.0
20260902005124 88 200 2.0 4.0 0.00 0.00 0.00 62 1017.0
20260902005030 88 202 2.0 4.0 0.00 0.00 0.00 61 1017.0
20260902004937 88 206 2.0 4.0 0.00 0.00 0.00 61 1016.9
20260902004843 88 194 2.0 4.0 0.00 0.00 0.00 61 1017.0
20260902004817 88 192 1.0 4.0 0.00 0.00 0.00 61 1017.0
20260902004529 88 193 2.0 4.0 0.00 0.00 0.00 61 1017.0
20260902004416 88 193 1.0 4.0 0.00 0.00 0.00 61 1016.9
20260902004323 88 209 2.0 4.0 0.00 0.00 0.00 61 1017.0
20260902004249 88 209 2.0 4.0 0.00 0.00 0.00 61 1017.1
20260902004134 89 175 3.0 4.0 0.00 0.00 0.00 61 1017.0
20260902004024 89 192 3.0 4.0 0.00 0.00 0.00 62 1017.0
20260902003930 89 202 1.0 3.0 0.00 0.00 0.00 63 1016.9
20260902003818 89 209 0.0 2.0 0.00 0.00 0.00 64 1016.9
20260902003746 89 207 0.0 2.0 0.00 0.00 0.00 64 1016.9
20260902003631 89 207 1.0 2.0 0.00 0.00 0.00 64 1017.0
20260902003517 89 207 1.0 2.0 0.00 0.00 0.00 64 1016.9
20260902003443 89 269 1.0 3.0 0.00 0.00 0.00 63 1017.0
20260902003332 89 269 1.0 3.0 0.00 0.00 0.00 63 1016.9
20260902003302 89 274 1.0 3.0 0.00 0.00 0.00 63 1016.9
20260902003035 90 275 1.0 3.0 0.00 0.00 0.00 63 1016.9
20260902002921 90 275 1.0 3.0 0.00 0.00 0.00 62 1016.9
20260902002826 90 275 1.0 4.0 0.00 0.00 0.00 62 1017.0
20260902002717 90 275 2.0 5.0 0.00 0.00 0.00 62 1016.9
20260902002623 90 275 2.0 5.0 0.00 0.00 0.00 62 1016.9
20260902002531 90 273 2.0 5.0 0.00 0.00 0.00 61 1016.9
20260902002438 90 268 2.0 5.0 0.00 0.00 0.00 61 1017.0
20260902002325 90 281 1.0 5.0 0.00 0.00 0.00 61 1017.0
20260902002231 90 279 2.0 5.0 0.00 0.00 0.00 59 1016.9
20260902002121 90 238 2.0 5.0 0.00 0.00 0.00 58 1016.9
20260902002028 90 219 3.0 5.0 0.00 0.00 0.00 58 1016.9
20260902001937 90 193 3.0 5.0 0.00 0.00 0.00 58 1016.9
20260902001842 90 192 3.0 5.0 0.00 0.00 0.00 58 1016.9
20260902001812 90 214 3.0 4.0 0.00 0.00 0.00 58 1016.9
20260902001548 90 209 3.0 4.0 0.00 0.00 0.00 58 1016.9
20260902001454 91 205 3.0 4.0 0.00 0.00 0.00 58 1016.8
20260902001320 91 192 3.0 5.0 0.00 0.00 0.00 58 1016.9
20260902001226 91 192 2.0 5.0 0.00 0.00 0.00 58 1016.9
20260902001134 91 212 2.0 5.0 0.00 0.00 0.00 58 1016.8
20260902001020 91 194 2.0 5.0 0.00 0.00 0.00 58 1016.9
20260902000931 91 187 3.0 5.0 0.00 0.00 0.00 58 1016.9
20260902000818 91 196 3.0 5.0 0.00 0.00 0.00 58 1016.9
20260902000744 91 219 3.0 5.0 0.00 0.00 0.00 58 1016.9
20260902000630 91 221 3.0 5.0 0.00 0.00 0.00 58 1016.9
20260902000536 91 187 3.0 5.0 0.00 0.00 0.00 58 1016.9
20260902000423 91 197 3.0 5.0 0.00 0.00 0.00 58 1017.0
20260902000333 91 198 3.0 5.0 0.00 0.00 0.00 58 1017.0
20260902000304 92 214 3.0 5.0 0.00 0.00 0.00 58 1017.0
20260902000016 92 213 2.0 3.0 0.00 0.00 0.00 60 1017.0
20260901235923 92 263 2.0 3.0 0.00 0.00 0.00 59 1017.0
20260901235830 92 263 2.0 3.0 0.00 0.00 0.00 59 1017.0
20260901235719 92 264 2.0 3.0 0.00 0.00 0.00 58 1017.0
20260901235628 92 272 2.0 3.0 0.00 0.00 0.00 58 1017.1
20260901235535 92 279 1.0 3.0 0.00 0.00 0.00 57 1017.0
20260901235421 92 242 1.0 2.0 0.00 0.00 0.00 57 1017.0
20260901235328 92 216 1.0 2.0 0.00 0.00 0.00 54 1016.9
20260901235218 92 211 1.0 3.0 0.00 0.00 0.00 54 1017.0
20260901235125 93 211 1.0 3.0 0.00 0.00 0.00 54 1016.9
20260901235053 93 201 1.0 4.0 0.00 0.00 0.00 54 1017.0
20260901234919 93 201 1.0 4.0 0.00 0.00 0.00 54 1017.0
20260901234826 93 201 1.0 4.0 0.00 0.00 0.00 54 1017.0
20260901234802 93 202 1.0 4.0 0.00 0.00 0.00 53 1017.0
20260901234533 93 203 2.0 4.0 0.00 0.00 0.00 53 1017.0
20260901234441 93 228 2.0 4.0 0.00 0.00 0.00 53 1017.0
20260901234327 93 194 2.0 4.0 0.00 0.00 0.00 53 1017.0
20260901234235 93 212 2.0 4.0 0.00 0.00 0.00 53 1016.9
20260901234122 93 180 1.0 3.0 0.00 0.00 0.00 53 1017.0
20260901234032 93 181 1.0 3.0 0.00 0.00 0.00 54 1017.0
20260901233940 93 181 1.0 4.0 0.00 0.00 0.00 54 1016.9
20260901233826 93 195 1.0 4.0 0.00 0.00 0.00 52 1016.9
20260901233733 93 202 1.0 4.0 0.00 0.00 0.00 52 1016.9
20260901233619 93 202 1.0 4.0 0.00 0.00 0.00 52 1017.0
20260901233526 93 202 1.0 4.0 0.00 0.00 0.00 51 1017.0
20260901233418 93 201 1.0 4.0 0.00 0.00 0.00 50 1016.9
20260901233325 94 201 1.0 4.0 0.00 0.00 0.00 51 1017.0
20260901233255 94 201 2.0 4.0 0.00 0.00 0.00 51 1017.0
20260901233029 94 170 2.0 3.0 0.00 0.00 0.00 52 1016.9
20260901232920 94 170 2.0 4.0 0.00 0.00 0.00 51 1016.9
20260901232827 94 165 1.0 3.0 0.00 0.00 0.00 51 1016.9
20260901232754 94 165 1.0 3.0 0.00 0.00 0.00 51 1016.9
20260901232620 94 165 1.0 3.0 0.00 0.00 0.00 52 1016.9
20260901232526 94 127 1.0 3.0 0.00 0.00 0.00 53 1017.0
20260901232432 94 127 1.0 4.0 0.00 0.00 0.00 52 1017.0
20260901232324 94 127 2.0 4.0 0.00 0.00 0.00 53 1017.0
20260901232231 94 123 1.0 4.0 0.00 0.00 0.00 50 1017.0
20260901232118 94 198 0.0 4.0 0.00 0.00 0.00 50 1017.0
20260901232045 94 198 0.0 4.0 0.00 0.00 0.00 50 1017.0
20260901231931 94 198 2.0 4.0 0.00 0.00 0.00 51 1017.0
20260901231820 94 198 2.0 5.0 0.00 0.00 0.00 51 1017.0
20260901231755 94 198 3.0 5.0 0.00 0.00 0.00 51 1017.0
20260901231528 94 207 2.0 5.0 0.00 0.00 0.00 51 1016.9
20260901231435 94 221 2.0 5.0 0.00 0.00 0.00 51 1016.9
20260901231342 94 215 2.0 5.0 0.00 0.00 0.00 51 1017.0
20260901231226 94 213 3.0 5.0 0.00 0.00 0.00 52 1017.0
20260901231116 94 205 3.0 5.0 0.00 0.00 0.00 52 1016.9
20260901231023 94 219 3.0 5.0 0.00 0.00 0.00 52 1016.9
20260901230932 94 200 3.0 4.0 0.00 0.00 0.00 51 1016.9
20260901230818 94 209 3.0 4.0 0.00 0.00 0.00 52 1017.0
20260901230746 94 173 4.0 4.0 0.00 0.00 0.00 51 1016.9
20260901230631 94 194 3.0 4.0 0.00 0.00 0.00 52 1017.0
20260901230541 94 201 2.0 4.0 0.00 0.00 0.00 51 1017.0
20260901230426 94 209 2.0 4.0 0.00 0.00 0.00 51 1017.0
20260901230334 94 221 2.0 4.0 0.00 0.00 0.00 51 1017.0
20260901230304 94 196 2.0 4.0 0.00 0.00 0.00 51 1017.0
20260901230017 94 211 2.0 3.0 0.00 0.00 0.00 51 1017.0
20260901225929 94 227 1.0 3.0 0.00 0.00 0.00 50 1017.0
20260901225835 94 92 1.0 3.0 0.00 0.00 0.00 48 1016.9
20260901225740 94 155 1.0 3.0 0.00 0.00 0.00 48 1016.9
20260901225626 94 155 2.0 3.0 0.00 0.00 0.00 48 1016.9
20260901225533 94 155 2.0 3.0 0.00 0.00 0.00 47 1017.0
20260901225441 94 155 2.0 3.0 0.00 0.00 0.00 48 1016.9
20260901225330 94 117 1.0 3.0 0.00 0.00 0.00 49 1016.9
20260901225235 94 143 1.0 3.0 0.00 0.00 0.00 48 1016.9
20260901225122 95 66 1.0 3.0 0.00 0.00 0.00 49 1016.9
20260901225029 95 49 1.0 3.0 0.00 0.00 0.00 48 1017.0
20260901224957 95 78 2.0 3.0 0.00 0.00 0.00 48 1016.9
20260901224822 95 109 2.0 3.0 0.00 0.00 0.00 49 1016.9
20260901224756 95 109 2.0 3.0 0.00 0.00 0.00 49 1016.9
20260901224529 95 126 1.0 3.0 0.00 0.00 0.00 47 1016.9
20260901224418 95 130 1.0 3.0 0.00 0.00 0.00 47 1016.9
20260901224324 96 355 1.0 3.0 0.00 0.00 0.00 48 1016.9
20260901224230 96 88 1.0 3.0 0.00 0.00 0.00 47 1016.9
20260901224121 96 355 1.0 5.0 0.00 0.00 0.00 47 1016.9
20260901224028 96 355 1.0 5.0 0.00 0.00 0.00 47 1016.8
20260901223935 96 355 0.0 5.0 0.00 0.00 0.00 48 1016.9
20260901223843 96 355 1.0 5.0 0.00 0.00 0.00 47 1016.9
20260901223728 96 355 1.0 5.0 0.00 0.00 0.00 46 1016.9
20260901223618 96 355 2.0 5.0 0.00 0.00 0.00 46 1016.9
20260901223524 96 33 2.0 5.0 0.00 0.00 0.00 46 1016.8
20260901223432 96 33 2.0 5.0 0.00 0.00 0.00 47 1016.8
20260901223358 96 28 2.0 6.0 0.00 0.00 0.00 47 1016.8
20260901223309 96 39 2.0 6.0 0.00 0.00 0.00 47 1016.8
20260901223025 96 94 2.0 6.0 0.00 0.00 0.00 47 1016.8
20260901222931 96 40 2.0 6.0 0.00 0.00 0.00 48 1016.8
20260901222819 96 49 2.0 6.0 0.00 0.00 0.00 48 1016.8
20260901222728 96 88 2.0 6.0 0.00 0.00 0.00 48 1016.8
20260901222633 96 55 1.0 4.0 0.00 0.00 0.00 50 1016.7
20260901222519 96 57 2.0 4.0 0.00 0.00 0.00 48 1016.8
20260901222432 96 74 2.0 4.0 0.00 0.00 0.00 48 1016.7
20260901222318 95 355 2.0 4.0 0.00 0.00 0.00 47 1016.8
20260901222225 95 325 1.0 4.0 0.00 0.00 0.00 47 1016.8
20260901222131 95 355 1.0 4.0 0.00 0.00 0.00 47 1016.7
20260901222019 95 355 1.0 4.0 0.00 0.00 0.00 47 1016.7
20260901221929 95 355 1.0 4.0 0.00 0.00 0.00 46 1016.8
20260901221807 96 355 2.0 4.0 0.00 0.00 0.00 47 1016.8
20260901221540 96 34 2.0 4.0 0.00 0.00 0.00 47 1016.8
20260901221426 96 304 2.0 6.0 0.00 0.00 0.00 47 1016.7
20260901221317 96 343 1.0 6.0 0.00 0.00 0.00 46 1016.7
20260901221224 96 113 1.0 6.0 0.00 0.00 0.00 46 1016.8
20260901221150 96 113 2.0 6.0 0.00 0.00 0.00 46 1016.8
20260901221035 96 151 2.0 6.0 0.00 0.00 0.00 46 1016.7